Wetterdaten: Montag, 14.02.2022
Datum Zeit Temp. Aussen Temp. o. S. Temp +5cm Feuchte Auss Luftdruck Regen Sonnenschein Regendauer Solar Windben Empfang
14.02.2022 00:00 7,8 C 7,2 C 3,3 C 76 % 1003,7 hPa 0,0 l/m 0 min 0 min 0 W/m 22,5 km/h (4 Bft) 100,00 %
14.02.2022 00:02 7,8 C 7,2 C 3,3 C 76 % 1003,6 hPa 0,0 l/m 0 min 0 min 0 W/m 35,4 km/h (5 Bft) 100,00 %
14.02.2022 00:04 7,8 C 7,2 C 3,3 C 76 % 1003,7 hPa 0,0 l/m 0 min 0 min 0 W/m 25,7 km/h (4 Bft) 100,00 %
14.02.2022 00:08 7,8 C 7,2 C 3,3 C 76 % 1003,7 hPa 0,0 l/m 0 min 0 min 0 W/m 22,5 km/h (4 Bft) 97,65 %
14.02.2022 00:10 7,8 C 7,2 C 3,3 C 76 % 1003,6 hPa 0,0 l/m 0 min 0 min 0 W/m 19,3 km/h (3 Bft) 97,83 %
14.02.2022 00:12 7,8 C 7,2 C 3,3 C 76 % 1003,7 hPa 0,0 l/m 0 min 0 min 0 W/m 22,5 km/h (4 Bft) 100,00 %
14.02.2022 00:14 7,8 C 7,2 C 3,3 C 77 % 1003,6 hPa 0,0 l/m 0 min 0 min 0 W/m 19,3 km/h (3 Bft) 100,00 %
14.02.2022 00:16 7,8 C 6,7 C 3,3 C 77 % 1003,6 hPa 0,0 l/m 0 min 0 min 0 W/m 29,0 km/h (5 Bft) 100,00 %
14.02.2022 00:18 7,7 C 6,7 C 3,3 C 77 % 1003,6 hPa 0,0 l/m 0 min 0 min 0 W/m 22,5 km/h (4 Bft) 95,74 %
14.02.2022 00:20 7,7 C 6,7 C 3,3 C 77 % 1003,6 hPa 0,0 l/m 0 min 0 min 0 W/m 25,7 km/h (4 Bft) 100,00 %
14.02.2022 00:22 7,7 C 6,7 C 3,3 C 77 % 1003,6 hPa 0,0 l/m 0 min 0 min 0 W/m 16,1 km/h (3 Bft) 100,00 %
14.02.2022 00:24 7,7 C 6,7 C 3,3 C 77 % 1003,6 hPa 0,0 l/m 0 min 0 min 0 W/m 19,3 km/h (3 Bft) 97,87 %
14.02.2022 00:26 7,7 C 6,7 C 3,3 C 77 % 1003,5 hPa 0,0 l/m 0 min 0 min 0 W/m 22,5 km/h (4 Bft) 97,87 %
14.02.2022 00:28 7,7 C 6,7 C 3,3 C 77 % 1003,6 hPa 0,0 l/m 0 min 0 min 0 W/m 19,3 km/h (3 Bft) 97,87 %
14.02.2022 00:30 7,7 C 6,7 C 3,3 C 77 % 1003,5 hPa 0,0 l/m 0 min 0 min 0 W/m 22,5 km/h (4 Bft) 97,87 %
14.02.2022 00:32 7,7 C 6,7 C 3,3 C 77 % 1003,5 hPa 0,0 l/m 0 min 0 min 0 W/m 29,0 km/h (5 Bft) 97,87 %
14.02.2022 00:34 7,7 C 6,7 C 3,3 C 77 % 1003,5 hPa 0,0 l/m 0 min 0 min 0 W/m 25,7 km/h (4 Bft) 95,65 %
14.02.2022 00:36 7,7 C 6,7 C 3,3 C 77 % 1003,5 hPa 0,0 l/m 0 min 0 min 0 W/m 22,5 km/h (4 Bft) 95,74 %
14.02.2022 00:38 7,7 C 6,7 C 3,3 C 77 % 1003,5 hPa 0,0 l/m 0 min 0 min 0 W/m 22,5 km/h (4 Bft) 95,74 %
14.02.2022 00:40 7,7 C 6,7 C 3,3 C 78 % 1003,5 hPa 0,0 l/m 0 min 0 min 0 W/m 19,3 km/h (3 Bft) 95,74 %
14.02.2022 00:42 7,7 C 7,2 C 3,3 C 78 % 1003,5 hPa 0,0 l/m 0 min 0 min 0 W/m 25,7 km/h (4 Bft) 95,74 %
14.02.2022 00:44 7,7 C 7,2 C 3,3 C 78 % 1003,4 hPa 0,0 l/m 0 min 0 min 0 W/m 22,5 km/h (4 Bft) 95,74 %
14.02.2022 00:46 7,7 C 7,2 C 3,3 C 78 % 1003,3 hPa 0,0 l/m 0 min 0 min 0 W/m 19,3 km/h (3 Bft) 97,96 %
14.02.2022 00:48 7,7 C 7,2 C 3,3 C 78 % 1003,3 hPa 0,0 l/m 0 min 0 min 0 W/m 22,5 km/h (4 Bft) 93,48 %
14.02.2022 00:50 7,8 C 7,2 C 3,3 C 78 % 1003,3 hPa 0,0 l/m 0 min 0 min 0 W/m 22,5 km/h (4 Bft) 93,62 %
14.02.2022 00:52 7,8 C 7,2 C 3,3 C 78 % 1003,3 hPa 0,0 l/m 0 min 0 min 0 W/m 22,5 km/h (4 Bft) 95,74 %
14.02.2022 00:54 7,8 C 7,2 C 3,3 C 78 % 1003,2 hPa 0,0 l/m 0 min 0 min 0 W/m 16,1 km/h (3 Bft) 93,62 %
14.02.2022 00:56 7,8 C 7,2 C 3,3 C 78 % 1003,2 hPa 0,0 l/m 0 min 0 min 0 W/m 25,7 km/h (4 Bft) 95,74 %
14.02.2022 00:58 7,8 C 7,2 C 3,3 C 78 % 1003,1 hPa 0,0 l/m 0 min 0 min 0 W/m 25,7 km/h (4 Bft) 93,62 %
14.02.2022 01:00 7,8 C 7,2 C 3,3 C 78 % 1003,0 hPa 0,0 l/m 0 min 0 min 0 W/m 29,0 km/h (5 Bft) 95,65 %
14.02.2022 01:02 7,8 C 7,2 C 3,3 C 78 % 1003,1 hPa 0,0 l/m 0 min 0 min 0 W/m 19,3 km/h (3 Bft) 95,74 %
14.02.2022 01:04 7,8 C 7,2 C 3,3 C 78 % 1003,0 hPa 0,0 l/m 0 min 0 min 0 W/m 29,0 km/h (5 Bft) 95,74 %
14.02.2022 01:06 7,8 C 7,2 C 3,3 C 78 % 1002,9 hPa 0,0 l/m 0 min 0 min 0 W/m 29,0 km/h (5 Bft) 97,87 %
14.02.2022 01:08 7,8 C 7,2 C 3,3 C 78 % 1003,0 hPa 0,0 l/m 0 min 0 min 0 W/m 29,0 km/h (5 Bft) 97,87 %
14.02.2022 01:10 7,8 C 7,2 C 3,3 C 78 % 1002,9 hPa 0,0 l/m 0 min 0 min 0 W/m 32,2 km/h (5 Bft) 97,87 %
14.02.2022 01:12 7,8 C 7,2 C 3,3 C 78 % 1003,0 hPa 0,0 l/m 0 min 0 min 0 W/m 25,7 km/h (4 Bft) 100,00 %
14.02.2022 01:14 7,8 C 7,2 C 3,3 C 78 % 1002,9 hPa 0,0 l/m 0 min 0 min 0 W/m 19,3 km/h (3 Bft) 100,00 %
14.02.2022 01:16 7,8 C 7,2 C 3,3 C 78 % 1002,8 hPa 0,0 l/m 0 min 0 min 0 W/m 29,0 km/h (5 Bft) 100,00 %
14.02.2022 01:18 7,8 C 7,2 C 3,3 C 78 % 1002,9 hPa 0,0 l/m 0 min 0 min 0 W/m 25,7 km/h (4 Bft) 97,87 %
14.02.2022 01:20 7,8 C 7,2 C 3,3 C 78 % 1002,8 hPa 0,0 l/m 0 min 0 min 0 W/m 25,7 km/h (4 Bft) 100,00 %
14.02.2022 01:22 7,8 C 7,2 C 3,3 C 78 % 1002,8 hPa 0,0 l/m 0 min 0 min 0 W/m 22,5 km/h (4 Bft) 100,00 %
14.02.2022 01:24 7,8 C 7,2 C 3,3 C 78 % 1002,7 hPa 0,0 l/m 0 min 0 min 0 W/m 29,0 km/h (5 Bft) 100,00 %
14.02.2022 01:26 7,8 C 7,2 C 3,3 C 78 % 1002,7 hPa 0,0 l/m 0 min 0 min 0 W/m 29,0 km/h (5 Bft) 100,00 %
14.02.2022 01:28 7,8 C 7,2 C 3,3 C 78 % 1002,6 hPa 0,0 l/m 0 min 0 min 0 W/m 22,5 km/h (4 Bft) 100,00 %
14.02.2022 01:30 7,8 C 7,2 C 3,3 C 78 % 1002,7 hPa 0,0 l/m 0 min 0 min 0 W/m 29,0 km/h (5 Bft) 97,87 %
14.02.2022 01:32 7,8 C 7,2 C 3,3 C 78 % 1002,5 hPa 0,0 l/m 0 min 0 min 0 W/m 25,7 km/h (4 Bft) 100,00 %
14.02.2022 01:34 7,8 C 7,2 C 3,3 C 78 % 1002,6 hPa 0,0 l/m 0 min 0 min 0 W/m 16,1 km/h (3 Bft) 97,87 %
14.02.2022 01:36 7,8 C 7,2 C 3,3 C 78 % 1002,6 hPa 0,0 l/m 0 min 0 min 0 W/m 22,5 km/h (4 Bft) 100,00 %
14.02.2022 01:38 7,8 C 7,2 C 3,3 C 78 % 1002,6 hPa 0,0 l/m 0 min 0 min 0 W/m 19,3 km/h (3 Bft) 100,00 %
14.02.2022 01:40 7,8 C 7,2 C 3,3 C 78 % 1002,5 hPa 0,0 l/m 0 min 0 min 0 W/m 22,5 km/h (4 Bft) 100,00 %
14.02.2022 01:42 7,8 C 7,2 C 3,3 C 78 % 1002,5 hPa 0,0 l/m 0 min 0 min 0 W/m 25,7 km/h (4 Bft) 100,00 %
14.02.2022 01:44 7,8 C 7,2 C 3,3 C 78 % 1002,6 hPa 0,0 l/m 0 min 0 min 0 W/m 22,5 km/h (4 Bft) 100,00 %
14.02.2022 01:46 7,8 C 7,2 C 3,3 C 78 % 1002,5 hPa 0,0 l/m 0 min 0 min 0 W/m 22,5 km/h (4 Bft) 100,00 %
14.02.2022 01:48 7,8 C 7,2 C 3,3 C 78 % 1002,5 hPa 0,0 l/m 0 min 0 min 0 W/m 22,5 km/h (4 Bft) 100,00 %
14.02.2022 01:50 7,8 C 7,2 C 3,3 C 78 % 1002,5 hPa 0,0 l/m 0 min 0 min 0 W/m 19,3 km/h (3 Bft) 95,74 %
14.02.2022 01:52 7,8 C 7,2 C 3,3 C 79 % 1002,5 hPa 0,0 l/m 0 min 0 min 0 W/m 29,0 km/h (5 Bft) 97,87 %
14.02.2022 01:54 7,8 C 7,2 C 3,3 C 79 % 1002,5 hPa 0,0 l/m 0 min 0 min 0 W/m 19,3 km/h (3 Bft) 97,87 %
14.02.2022 01:56 7,8 C 7,2 C 3,3 C 79 % 1002,4 hPa 0,0 l/m 0 min 0 min 0 W/m 22,5 km/h (4 Bft) 93,62 %
14.02.2022 01:58 7,8 C 7,2 C 3,3 C 79 % 1002,4 hPa 0,0 l/m 0 min 0 min 0 W/m 19,3 km/h (3 Bft) 97,87 %
14.02.2022 02:00 7,8 C 7,2 C 3,3 C 79 % 1002,4 hPa 0,0 l/m 0 min 0 min 0 W/m 29,0 km/h (5 Bft) 97,83 %
14.02.2022 02:02 7,8 C 7,2 C 3,3 C 79 % 1002,3 hPa 0,0 l/m 0 min 0 min 0 W/m 25,7 km/h (4 Bft) 97,87 %
14.02.2022 02:04 7,8 C 7,2 C 3,3 C 79 % 1002,2 hPa 0,0 l/m 0 min 0 min 0 W/m 35,4 km/h (5 Bft) 97,87 %
14.02.2022 02:06 7,8 C 7,2 C 3,3 C 79 % 1002,2 hPa 0,0 l/m 0 min 0 min 0 W/m 22,5 km/h (4 Bft) 97,87 %
14.02.2022 02:08 7,8 C 7,2 C 3,3 C 79 % 1002,3 hPa 0,0 l/m 0 min 0 min 0 W/m 22,5 km/h (4 Bft) 97,87 %
14.02.2022 02:10 7,8 C 7,2 C 3,3 C 79 % 1002,2 hPa 0,0 l/m 0 min 0 min 0 W/m 32,2 km/h (5 Bft) 97,87 %
14.02.2022 02:12 7,8 C 7,2 C 3,3 C 79 % 1002,2 hPa 0,0 l/m 0 min 0 min 0 W/m 25,7 km/h (4 Bft) 95,65 %
14.02.2022 02:14 7,9 C 7,2 C 3,3 C 79 % 1002,2 hPa 0,0 l/m 0 min 0 min 0 W/m 25,7 km/h (4 Bft) 95,74 %
14.02.2022 02:16 7,9 C 7,2 C 3,3 C 79 % 1002,1 hPa 0,0 l/m 0 min 0 min 0 W/m 25,7 km/h (4 Bft) 97,87 %
14.02.2022 02:18 7,9 C 7,2 C 3,3 C 79 % 1002,1 hPa 0,0 l/m 0 min 0 min 0 W/m 29,0 km/h (5 Bft) 97,87 %
14.02.2022 02:20 7,9 C 7,2 C 3,3 C 79 % 1002,0 hPa 0,0 l/m 0 min 0 min 0 W/m 22,5 km/h (4 Bft) 97,87 %
14.02.2022 02:22 7,9 C 7,2 C 3,3 C 79 % 1002,0 hPa 0,0 l/m 0 min 0 min 0 W/m 25,7 km/h (4 Bft) 97,87 %
14.02.2022 02:24 7,9 C 7,2 C 3,3 C 79 % 1001,9 hPa 0,0 l/m 0 min 0 min 0 W/m 22,5 km/h (4 Bft) 97,83 %
14.02.2022 02:26 7,9 C 7,2 C 3,3 C 79 % 1002,0 hPa 0,0 l/m 0 min 0 min 0 W/m 22,5 km/h (4 Bft) 95,74 %
14.02.2022 02:28 7,9 C 7,2 C 3,3 C 79 % 1001,9 hPa 0,0 l/m 0 min 0 min 0 W/m 22,5 km/h (4 Bft) 91,49 %
14.02.2022 02:30 7,9 C 7,2 C 3,3 C 79 % 1001,9 hPa 0,0 l/m 0 min 0 min 0 W/m 22,5 km/h (4 Bft) 95,74 %
14.02.2022 02:32 8,0 C 7,2 C 3,3 C 79 % 1001,8 hPa 0,0 l/m 0 min 0 min 0 W/m 25,7 km/h (4 Bft) 94,34 %
14.02.2022 02:34 8,0 C 7,2 C 3,3 C 79 % 1001,8 hPa 0,0 l/m 0 min 0 min 0 W/m 25,7 km/h (4 Bft) 95,74 %
14.02.2022 02:36 8,1 C 7,2 C 3,3 C 79 % 1001,9 hPa 0,0 l/m 0 min 0 min 0 W/m 22,5 km/h (4 Bft) 95,74 %
14.02.2022 02:38 8,1 C 7,2 C 3,3 C 79 % 1001,8 hPa 0,0 l/m 0 min 0 min 0 W/m 29,0 km/h (5 Bft) 95,74 %
14.02.2022 02:40 8,1 C 7,2 C 3,3 C 79 % 1001,8 hPa 0,0 l/m 0 min 0 min 0 W/m 19,3 km/h (3 Bft) 95,65 %
14.02.2022 02:42 8,1 C 7,2 C 3,3 C 79 % 1001,8 hPa 0,0 l/m 0 min 0 min 0 W/m 22,5 km/h (4 Bft) 97,87 %
14.02.2022 02:44 8,1 C 7,2 C 3,3 C 79 % 1001,8 hPa 0,0 l/m 0 min 0 min 0 W/m 35,4 km/h (5 Bft) 97,87 %
14.02.2022 02:46 8,1 C 7,2 C 3,3 C 79 % 1001,7 hPa 0,0 l/m 0 min 0 min 0 W/m 19,3 km/h (3 Bft) 95,74 %
14.02.2022 02:48 8,1 C 7,2 C 3,3 C 79 % 1001,7 hPa 0,0 l/m 0 min 0 min 0 W/m 22,5 km/h (4 Bft) 97,87 %
14.02.2022 02:50 8,1 C 7,2 C 3,3 C 79 % 1001,7 hPa 0,0 l/m 0 min 0 min 0 W/m 25,7 km/h (4 Bft) 97,87 %
14.02.2022 02:52 8,1 C 7,2 C 3,3 C 79 % 1001,5 hPa 0,0 l/m 0 min 0 min 0 W/m 29,0 km/h (5 Bft) 97,83 %
14.02.2022 02:54 8,1 C 7,2 C 3,3 C 79 % 1001,5 hPa 0,0 l/m 0 min 0 min 0 W/m 16,1 km/h (3 Bft) 95,74 %
14.02.2022 02:56 8,1 C 7,2 C 3,3 C 79 % 1001,5 hPa 0,0 l/m 0 min 0 min 0 W/m 22,5 km/h (4 Bft) 97,87 %
14.02.2022 02:58 8,1 C 7,2 C 3,3 C 79 % 1001,5 hPa 0,0 l/m 0 min 0 min 0 W/m 35,4 km/h (5 Bft) 97,87 %
14.02.2022 03:00 8,1 C 7,2 C 3,3 C 79 % 1001,4 hPa 0,0 l/m 0 min 0 min 0 W/m 22,5 km/h (4 Bft) 97,87 %
14.02.2022 03:02 8,1 C 7,2 C 3,3 C 79 % 1001,4 hPa 0,0 l/m 0 min 0 min 0 W/m 22,5 km/h (4 Bft) 97,22 %
14.02.2022 03:04 8,1 C 7,2 C 3,3 C 79 % 1001,4 hPa 0,0 l/m 0 min 0 min 0 W/m 29,0 km/h (5 Bft) 97,87 %
14.02.2022 03:06 8,1 C 7,2 C 3,3 C 79 % 1001,4 hPa 0,0 l/m 0 min 0 min 0 W/m 22,5 km/h (4 Bft) 95,74 %
14.02.2022 03:08 8,1 C 7,2 C 3,3 C 79 % 1001,4 hPa 0,0 l/m 0 min 0 min 0 W/m 29,0 km/h (5 Bft) 100,00 %
14.02.2022 03:10 8,1 C 7,2 C 3,3 C 79 % 1001,3 hPa 0,0 l/m 0 min 0 min 0 W/m 25,7 km/h (4 Bft) 97,87 %
14.02.2022 03:12 8,1 C 7,2 C 3,3 C 79 % 1001,3 hPa 0,0 l/m 0 min 0 min 0 W/m 22,5 km/h (4 Bft) 95,74 %
14.02.2022 03:14 8,1 C 7,2 C 3,3 C 79 % 1001,3 hPa 0,0 l/m 0 min 0 min 0 W/m 25,7 km/h (4 Bft) 97,87 %
14.02.2022 03:16 8,1 C 7,2 C 3,3 C 79 % 1001,2 hPa 0,0 l/m 0 min 0 min 0 W/m 22,5 km/h (4 Bft) 97,87 %
14.02.2022 03:18 8,1 C 7,2 C 3,3 C 79 % 1001,2 hPa 0,0 l/m 0 min 0 min 0 W/m 22,5 km/h (4 Bft) 97,87 %
14.02.2022 03:20 8,1 C 7,2 C 3,3 C 79 % 1001,2 hPa 0,0 l/m 0 min 0 min 0 W/m 19,3 km/h (3 Bft) 97,83 %
14.02.2022 03:22 8,1 C 7,2 C 3,3 C 79 % 1001,1 hPa 0,0 l/m 0 min 0 min 0 W/m 25,7 km/h (4 Bft) 97,87 %
14.02.2022 03:24 8,1 C 7,2 C 3,3 C 79 % 1001,0 hPa 0,0 l/m 0 min 0 min 0 W/m 32,2 km/h (5 Bft) 95,74 %
14.02.2022 03:26 8,1 C 7,2 C 3,3 C 79 % 1001,0 hPa 0,0 l/m 0 min 0 min 0 W/m 32,2 km/h (5 Bft) 97,87 %
14.02.2022 03:28 8,1 C 7,2 C 3,3 C 79 % 1000,9 hPa 0,0 l/m 0 min 0 min 0 W/m 25,7 km/h (4 Bft) 97,87 %
14.02.2022 03:30 8,1 C 7,2 C 3,3 C 79 % 1000,9 hPa 0,0 l/m 0 min 0 min 0 W/m 29,0 km/h (5 Bft) 95,74 %
14.02.2022 03:32 8,1 C 7,2 C 3,9 C 79 % 1001,0 hPa 0,0 l/m 0 min 0 min 0 W/m 32,2 km/h (5 Bft) 97,83 %
14.02.2022 03:34 8,1 C 7,2 C 3,3 C 79 % 1000,9 hPa 0,0 l/m 0 min 0 min 0 W/m 25,7 km/h (4 Bft) 97,87 %
14.02.2022 03:36 8,1 C 7,2 C 3,9 C 79 % 1000,9 hPa 0,0 l/m 0 min 0 min 0 W/m 29,0 km/h (5 Bft) 97,87 %
14.02.2022 03:38 8,1 C 7,2 C 3,9 C 79 % 1000,8 hPa 0,0 l/m 0 min 0 min 0 W/m 29,0 km/h (5 Bft) 97,87 %
14.02.2022 03:40 8,2 C 7,2 C 3,9 C 79 % 1000,8 hPa 0,0 l/m 0 min 0 min 0 W/m 22,5 km/h (4 Bft) 97,87 %
14.02.2022 03:42 8,2 C 7,2 C 3,9 C 79 % 1000,8 hPa 0,0 l/m 0 min 0 min 0 W/m 29,0 km/h (5 Bft) 97,83 %
14.02.2022 03:44 8,2 C 7,2 C 3,9 C 79 % 1000,7 hPa 0,0 l/m 0 min 0 min 0 W/m 25,7 km/h (4 Bft) 95,74 %
14.02.2022 03:46 8,2 C 7,2 C 3,9 C 79 % 1000,7 hPa 0,0 l/m 0 min 0 min 0 W/m 29,0 km/h (5 Bft) 97,87 %
14.02.2022 03:48 8,2 C 7,2 C 3,9 C 79 % 1000,8 hPa 0,0 l/m 0 min 0 min 0 W/m 22,5 km/h (4 Bft) 97,87 %
14.02.2022 03:50 8,2 C 7,2 C 3,9 C 79 % 1000,8 hPa 0,0 l/m 0 min 0 min 0 W/m 22,5 km/h (4 Bft) 97,87 %
14.02.2022 03:52 8,2 C 7,2 C 3,9 C 79 % 1000,7 hPa 0,0 l/m 0 min 0 min 0 W/m 25,7 km/h (4 Bft) 97,87 %
14.02.2022 03:54 8,2 C 7,2 C 3,9 C 79 % 1000,7 hPa 0,0 l/m 0 min 0 min 0 W/m 19,3 km/h (3 Bft) 97,87 %
14.02.2022 03:56 8,2 C 7,2 C 3,9 C 79 % 1000,7 hPa 0,0 l/m 0 min 0 min 0 W/m 19,3 km/h (3 Bft) 100,00 %
14.02.2022 03:58 8,2 C 7,2 C 3,9 C 79 % 1000,7 hPa 0,0 l/m 0 min 0 min 0 W/m 29,0 km/h (5 Bft) 100,00 %
14.02.2022 04:00 8,2 C 7,8 C 3,9 C 79 % 1000,7 hPa 0,0 l/m 0 min 0 min 0 W/m 38,6 km/h (5 Bft) 100,00 %
14.02.2022 04:05 8,3 C 7,8 C 3,9 C 79 % 1000,6 hPa 0,0 l/m 0 min 0 min 0 W/m 29,0 km/h (5 Bft) 100,00 %
14.02.2022 04:06 8,3 C 7,8 C 3,9 C 79 % 1000,6 hPa 0,0 l/m 0 min 0 min 0 W/m 25,7 km/h (4 Bft) 91,67 %
14.02.2022 04:08 8,3 C 7,8 C 3,9 C 78 % 1000,5 hPa 0,0 l/m 0 min 0 min 0 W/m 25,7 km/h (4 Bft) 97,87 %
14.02.2022 04:10 8,3 C 7,8 C 3,9 C 78 % 1000,5 hPa 0,0 l/m 0 min 0 min 0 W/m 19,3 km/h (3 Bft) 100,00 %
14.02.2022 04:12 8,3 C 7,8 C 3,9 C 78 % 1000,5 hPa 0,0 l/m 0 min 0 min 0 W/m 29,0 km/h (5 Bft) 100,00 %
14.02.2022 04:14 8,3 C 7,8 C 3,9 C 78 % 1000,4 hPa 0,0 l/m 0 min 0 min 0 W/m 22,5 km/h (4 Bft) 100,00 %
14.02.2022 04:16 8,3 C 7,8 C 3,9 C 78 % 1000,4 hPa 0,0 l/m 0 min 0 min 0 W/m 38,6 km/h (5 Bft) 97,87 %
14.02.2022 04:18 8,4 C 7,8 C 3,9 C 78 % 1000,5 hPa 0,0 l/m 0 min 0 min 0 W/m 25,7 km/h (4 Bft) 97,87 %
14.02.2022 04:20 8,4 C 7,8 C 3,9 C 78 % 1000,4 hPa 0,0 l/m 0 min 0 min 0 W/m 29,0 km/h (5 Bft) 100,00 %
14.02.2022 04:22 8,4 C 7,8 C 3,9 C 78 % 1000,3 hPa 0,0 l/m 0 min 0 min 0 W/m 25,7 km/h (4 Bft) 100,00 %
14.02.2022 04:24 8,4 C 7,8 C 3,9 C 78 % 1000,3 hPa 0,0 l/m 0 min 0 min 0 W/m 35,4 km/h (5 Bft) 100,00 %
14.02.2022 04:26 8,4 C 7,8 C 3,9 C 78 % 1000,3 hPa 0,0 l/m 0 min 0 min 0 W/m 29,0 km/h (5 Bft) 100,00 %
14.02.2022 04:28 8,4 C 7,8 C 3,9 C 78 % 1000,2 hPa 0,0 l/m 0 min 0 min 0 W/m 19,3 km/h (3 Bft) 97,87 %
14.02.2022 04:30 8,4 C 7,8 C 3,9 C 78 % 1000,2 hPa 0,0 l/m 0 min 0 min 0 W/m 25,7 km/h (4 Bft) 97,87 %
14.02.2022 04:32 8,4 C 7,8 C 3,9 C 78 % 1000,2 hPa 0,0 l/m 0 min 0 min 0 W/m 22,5 km/h (4 Bft) 97,87 %
14.02.2022 04:34 8,4 C 7,8 C 3,9 C 78 % 1000,1 hPa 0,0 l/m 0 min 0 min 0 W/m 22,5 km/h (4 Bft) 97,87 %
14.02.2022 04:36 8,4 C 7,8 C 3,9 C 78 % 1000,2 hPa 0,0 l/m 0 min 0 min 0 W/m 19,3 km/h (3 Bft) 95,74 %
14.02.2022 04:38 8,4 C 7,8 C 3,9 C 78 % 1000,1 hPa 0,0 l/m 0 min 0 min 0 W/m 25,7 km/h (4 Bft) 97,87 %
14.02.2022 04:40 8,4 C 7,8 C 3,9 C 78 % 1000,1 hPa 0,0 l/m 0 min 0 min 0 W/m 29,0 km/h (5 Bft) 97,87 %
14.02.2022 04:42 8,4 C 7,8 C 3,9 C 78 % 1000,2 hPa 0,0 l/m 0 min 0 min 0 W/m 19,3 km/h (3 Bft) 95,65 %
14.02.2022 04:44 8,4 C 7,8 C 3,9 C 78 % 1000,2 hPa 0,0 l/m 0 min 0 min 0 W/m 22,5 km/h (4 Bft) 93,62 %
14.02.2022 04:46 8,3 C 7,8 C 3,9 C 78 % 1000,2 hPa 0,0 l/m 0 min 0 min 0 W/m 22,5 km/h (4 Bft) 91,49 %
14.02.2022 04:48 8,3 C 7,2 C 3,9 C 78 % 1000,2 hPa 0,0 l/m 0 min 0 min 0 W/m 25,7 km/h (4 Bft) 95,74 %
14.02.2022 04:50 8,3 C 7,8 C 3,9 C 78 % 1000,2 hPa 0,0 l/m 0 min 0 min 0 W/m 38,6 km/h (5 Bft) 95,74 %
14.02.2022 04:52 8,3 C 7,8 C 3,9 C 78 % 1000,2 hPa 0,0 l/m 0 min 0 min 0 W/m 35,4 km/h (5 Bft) 93,62 %
14.02.2022 04:54 8,3 C 7,8 C 3,9 C 78 % 1000,2 hPa 0,0 l/m 0 min 0 min 0 W/m 25,7 km/h (4 Bft) 95,65 %
14.02.2022 04:56 8,3 C 7,2 C 3,9 C 78 % 1000,1 hPa 0,0 l/m 0 min 0 min 0 W/m 19,3 km/h (3 Bft) 95,74 %
14.02.2022 04:58 8,3 C 7,2 C 3,9 C 78 % 1000,1 hPa 0,0 l/m 0 min 0 min 0 W/m 29,0 km/h (5 Bft) 95,74 %
14.02.2022 05:00 8,3 C 7,2 C 3,9 C 78 % 1000,1 hPa 0,0 l/m 0 min 0 min 0 W/m 22,5 km/h (4 Bft) 97,87 %
14.02.2022 05:02 8,3 C 7,2 C 3,9 C 78 % 1000,1 hPa 0,0 l/m 0 min 0 min 0 W/m 19,3 km/h (3 Bft) 95,92 %
14.02.2022 05:04 8,2 C 7,2 C 3,9 C 78 % 1000,1 hPa 0,0 l/m 0 min 0 min 0 W/m 29,0 km/h (5 Bft) 95,74 %
14.02.2022 05:06 8,2 C 7,2 C 3,9 C 78 % 1000,0 hPa 0,0 l/m 0 min 0 min 0 W/m 25,7 km/h (4 Bft) 97,83 %
14.02.2022 05:08 8,2 C 7,2 C 3,9 C 78 % 1000,0 hPa 0,0 l/m 0 min 0 min 0 W/m 22,5 km/h (4 Bft) 95,74 %
14.02.2022 05:10 8,2 C 7,2 C 3,9 C 79 % 999,9 hPa 0,0 l/m 0 min 0 min 0 W/m 19,3 km/h (3 Bft) 97,87 %
14.02.2022 05:12 8,2 C 7,2 C 3,9 C 79 % 999,9 hPa 0,0 l/m 0 min 0 min 0 W/m 25,7 km/h (4 Bft) 97,87 %
14.02.2022 05:14 8,2 C 7,2 C 3,9 C 79 % 999,9 hPa 0,0 l/m 0 min 0 min 0 W/m 38,6 km/h (5 Bft) 97,92 %
14.02.2022 05:16 8,2 C 7,2 C 3,9 C 79 % 999,9 hPa 0,0 l/m 0 min 0 min 0 W/m 19,3 km/h (3 Bft) 97,87 %
14.02.2022 05:18 8,2 C 7,2 C 3,9 C 79 % 999,8 hPa 0,0 l/m 0 min 0 min 0 W/m 25,7 km/h (4 Bft) 97,87 %
14.02.2022 05:20 8,2 C 7,2 C 3,9 C 79 % 999,9 hPa 0,0 l/m 0 min 0 min 0 W/m 32,2 km/h (5 Bft) 97,83 %
14.02.2022 05:22 8,2 C 7,2 C 3,9 C 79 % 999,8 hPa 0,0 l/m 0 min 0 min 0 W/m 32,2 km/h (5 Bft) 97,87 %
14.02.2022 05:24 8,2 C 7,8 C 3,9 C 79 % 999,7 hPa 0,0 l/m 0 min 0 min 0 W/m 32,2 km/h (5 Bft) 95,74 %
14.02.2022 05:26 8,2 C 7,8 C 3,9 C 79 % 999,7 hPa 0,0 l/m 0 min 0 min 0 W/m 22,5 km/h (4 Bft) 97,87 %
14.02.2022 05:28 8,2 C 7,8 C 3,9 C 79 % 999,7 hPa 0,0 l/m 0 min 0 min 0 W/m 22,5 km/h (4 Bft) 97,87 %
14.02.2022 05:30 8,3 C 7,8 C 3,9 C 79 % 999,7 hPa 0,0 l/m 0 min 0 min 0 W/m 19,3 km/h (3 Bft) 97,87 %
14.02.2022 05:32 8,3 C 7,8 C 3,9 C 79 % 999,7 hPa 0,0 l/m 0 min 0 min 0 W/m 25,7 km/h (4 Bft) 97,83 %
14.02.2022 05:34 8,3 C 7,8 C 3,9 C 79 % 999,7 hPa 0,0 l/m 0 min 0 min 0 W/m 25,7 km/h (4 Bft) 100,00 %
14.02.2022 05:36 8,3 C 7,8 C 3,9 C 78 % 999,7 hPa 0,0 l/m 0 min 0 min 0 W/m 29,0 km/h (5 Bft) 100,00 %
14.02.2022 05:38 8,3 C 7,8 C 3,9 C 78 % 999,7 hPa 0,0 l/m 0 min 0 min 0 W/m 29,0 km/h (5 Bft) 98,31 %
14.02.2022 05:40 8,3 C 7,8 C 3,9 C 78 % 999,7 hPa 0,0 l/m 0 min 0 min 0 W/m 25,7 km/h (4 Bft) 97,14 %
14.02.2022 05:42 8,3 C 7,8 C 3,9 C 78 % 999,8 hPa 0,0 l/m 0 min 0 min 0 W/m 41,8 km/h (6 Bft) 100,00 %
14.02.2022 05:44 8,3 C 7,8 C 3,9 C 78 % 999,8 hPa 0,0 l/m 0 min 0 min 0 W/m 32,2 km/h (5 Bft) 100,00 %
14.02.2022 05:46 8,3 C 7,8 C 3,9 C 78 % 999,7 hPa 0,0 l/m 0 min 0 min 0 W/m 25,7 km/h (4 Bft) 100,00 %
14.02.2022 05:48 8,3 C 7,8 C 3,9 C 78 % 999,8 hPa 0,0 l/m 0 min 0 min 0 W/m 25,7 km/h (4 Bft) 100,00 %
14.02.2022 05:50 8,3 C 7,8 C 3,9 C 78 % 999,6 hPa 0,0 l/m 0 min 0 min 0 W/m 22,5 km/h (4 Bft) 97,87 %
14.02.2022 05:52 8,3 C 7,2 C 3,9 C 78 % 999,7 hPa 0,0 l/m 0 min 0 min 0 W/m 16,1 km/h (3 Bft) 100,00 %
14.02.2022 05:54 8,3 C 7,8 C 3,9 C 79 % 999,6 hPa 0,0 l/m 0 min 0 min 0 W/m 25,7 km/h (4 Bft) 97,87 %
14.02.2022 05:56 8,3 C 7,8 C 3,9 C 79 % 999,7 hPa 0,0 l/m 0 min 0 min 0 W/m 25,7 km/h (4 Bft) 97,87 %
14.02.2022 05:58 8,3 C 7,8 C 3,9 C 79 % 999,6 hPa 0,0 l/m 0 min 0 min 0 W/m 25,7 km/h (4 Bft) 96,55 %
14.02.2022 06:00 8,3 C 7,8 C 3,9 C 79 % 999,6 hPa 0,0 l/m 0 min 0 min 0 W/m 19,3 km/h (3 Bft) 100,00 %
14.02.2022 06:02 8,3 C 7,2 C 3,9 C 79 % 999,6 hPa 0,0 l/m 0 min 0 min 0 W/m 22,5 km/h (4 Bft) 94,44 %
14.02.2022 06:04 8,3 C 7,8 C 3,9 C 79 % 999,5 hPa 0,0 l/m 0 min 0 min 0 W/m 29,0 km/h (5 Bft) 97,87 %
14.02.2022 06:08 8,3 C 7,8 C 3,9 C 79 % 999,6 hPa 0,0 l/m 0 min 0 min 0 W/m 25,7 km/h (4 Bft) 97,87 %
14.02.2022 06:10 8,3 C 7,8 C 3,9 C 79 % 999,6 hPa 0,0 l/m 0 min 0 min 0 W/m 22,5 km/h (4 Bft) 97,87 %
14.02.2022 06:12 8,3 C 7,8 C 3,9 C 79 % 999,5 hPa 0,0 l/m 0 min 0 min 0 W/m 25,7 km/h (4 Bft) 97,87 %
14.02.2022 06:14 8,3 C 7,8 C 3,9 C 79 % 999,5 hPa 0,0 l/m 0 min 0 min 0 W/m 22,5 km/h (4 Bft) 97,87 %
14.02.2022 06:16 8,4 C 7,8 C 3,9 C 79 % 999,6 hPa 0,0 l/m 0 min 0 min 0 W/m 25,7 km/h (4 Bft) 97,83 %
14.02.2022 06:18 8,4 C 7,8 C 3,9 C 79 % 999,6 hPa 0,0 l/m 0 min 0 min 0 W/m 16,1 km/h (3 Bft) 97,87 %
14.02.2022 06:20 8,4 C 7,8 C 3,9 C 79 % 999,6 hPa 0,0 l/m 0 min 0 min 0 W/m 22,5 km/h (4 Bft) 97,87 %
14.02.2022 06:22 8,4 C 7,8 C 3,9 C 79 % 999,6 hPa 0,0 l/m 0 min 0 min 0 W/m 25,7 km/h (4 Bft) 97,87 %
14.02.2022 06:24 8,4 C 7,8 C 4,4 C 79 % 999,6 hPa 0,0 l/m 0 min 0 min 0 W/m 29,0 km/h (5 Bft) 97,87 %
14.02.2022 06:26 8,5 C 7,8 C 4,4 C 79 % 999,6 hPa 0,0 l/m 0 min 0 min 0 W/m 19,3 km/h (3 Bft) 95,74 %
14.02.2022 06:28 8,6 C 7,8 C 4,4 C 79 % 999,7 hPa 0,0 l/m 0 min 0 min 0 W/m 22,5 km/h (4 Bft) 93,62 %
14.02.2022 06:30 8,6 C 7,8 C 4,4 C 79 % 999,7 hPa 0,0 l/m 0 min 0 min 0 W/m 25,7 km/h (4 Bft) 95,65 %
14.02.2022 06:32 8,6 C 7,8 C 4,4 C 79 % 999,7 hPa 0,0 l/m 0 min 0 min 0 W/m 25,7 km/h (4 Bft) 97,92 %
14.02.2022 06:34 8,6 C 7,8 C 4,4 C 79 % 999,6 hPa 0,0 l/m 0 min 0 min 0 W/m 29,0 km/h (5 Bft) 95,74 %
14.02.2022 06:36 8,7 C 7,8 C 4,4 C 79 % 999,7 hPa 0,0 l/m 0 min 0 min 0 W/m 22,5 km/h (4 Bft) 95,74 %
14.02.2022 06:38 8,7 C 8,3 C 4,4 C 79 % 999,7 hPa 0,0 l/m 0 min 0 min 0 W/m 29,0 km/h (5 Bft) 95,74 %
14.02.2022 06:40 8,8 C 8,3 C 4,4 C 79 % 999,7 hPa 0,0 l/m 0 min 0 min 0 W/m 22,5 km/h (4 Bft) 97,83 %
14.02.2022 06:42 8,8 C 8,3 C 4,4 C 79 % 999,6 hPa 0,0 l/m 0 min 0 min 0 W/m 22,5 km/h (4 Bft) 97,92 %
14.02.2022 06:44 8,8 C 8,3 C 4,4 C 79 % 999,7 hPa 0,0 l/m 0 min 0 min 0 W/m 16,1 km/h (3 Bft) 97,87 %
14.02.2022 06:46 8,8 C 8,3 C 4,4 C 79 % 999,6 hPa 0,0 l/m 0 min 0 min 0 W/m 16,1 km/h (3 Bft) 97,87 %
14.02.2022 06:48 8,8 C 7,8 C 4,4 C 79 % 999,6 hPa 0,0 l/m 0 min 0 min 0 W/m 25,7 km/h (4 Bft) 97,87 %
14.02.2022 06:50 8,8 C 7,8 C 4,4 C 79 % 999,6 hPa 0,0 l/m 0 min 0 min 0 W/m 22,5 km/h (4 Bft) 95,74 %
14.02.2022 06:52 8,8 C 7,8 C 4,4 C 79 % 999,6 hPa 0,0 l/m 0 min 0 min 0 W/m 22,5 km/h (4 Bft) 97,83 %
14.02.2022 06:54 8,8 C 7,8 C 4,4 C 79 % 999,7 hPa 0,0 l/m 0 min 0 min 0 W/m 25,7 km/h (4 Bft) 97,87 %
14.02.2022 06:56 8,8 C 8,3 C 4,4 C 79 % 999,6 hPa 0,0 l/m 0 min 0 min 0 W/m 32,2 km/h (5 Bft) 97,87 %
14.02.2022 06:58 8,8 C 8,3 C 4,4 C 79 % 999,6 hPa 0,0 l/m 0 min 0 min 0 W/m 25,7 km/h (4 Bft) 97,87 %
14.02.2022 07:00 8,9 C 8,3 C 4,4 C 79 % 999,5 hPa 0,0 l/m 0 min 0 min 0 W/m 22,5 km/h (4 Bft) 97,87 %
14.02.2022 07:02 8,9 C 8,3 C 4,4 C 79 % 999,6 hPa 0,0 l/m 0 min 0 min 0 W/m 19,3 km/h (3 Bft) 97,96 %
14.02.2022 07:04 8,9 C 8,3 C 4,4 C 79 % 999,6 hPa 0,0 l/m 0 min 0 min 0 W/m 16,1 km/h (3 Bft) 100,00 %
14.02.2022 07:06 8,9 C 8,3 C 4,4 C 79 % 999,6 hPa 0,0 l/m 0 min 0 min 0 W/m 22,5 km/h (4 Bft) 100,00 %
14.02.2022 07:08 8,9 C 8,3 C 4,4 C 79 % 999,6 hPa 0,0 l/m 0 min 0 min 0 W/m 22,5 km/h (4 Bft) 100,00 %
14.02.2022 07:10 8,9 C 8,3 C 4,4 C 79 % 999,6 hPa 0,0 l/m 0 min 0 min 0 W/m 25,7 km/h (4 Bft) 100,00 %
14.02.2022 07:12 8,9 C 8,3 C 4,4 C 79 % 999,6 hPa 0,0 l/m 0 min 0 min 0 W/m 16,1 km/h (3 Bft) 100,00 %
14.02.2022 07:14 8,9 C 8,3 C 4,4 C 79 % 999,6 hPa 0,0 l/m 0 min 0 min 0 W/m 22,5 km/h (4 Bft) 100,00 %
14.02.2022 07:16 8,9 C 8,3 C 4,4 C 79 % 999,6 hPa 0,0 l/m 0 min 0 min 0 W/m 25,7 km/h (4 Bft) 100,00 %
14.02.2022 07:18 8,9 C 7,8 C 4,4 C 79 % 999,6 hPa 0,0 l/m 0 min 0 min 0 W/m 19,3 km/h (3 Bft) 97,87 %
14.02.2022 07:20 8,9 C 7,8 C 4,4 C 79 % 999,7 hPa 0,0 l/m 0 min 0 min 0 W/m 19,3 km/h (3 Bft) 100,00 %
14.02.2022 07:22 8,9 C 7,8 C 4,4 C 79 % 999,7 hPa 0,0 l/m 0 min 0 min 0 W/m 16,1 km/h (3 Bft) 100,00 %
14.02.2022 07:24 8,9 C 7,8 C 4,4 C 79 % 999,7 hPa 0,0 l/m 0 min 0 min 0 W/m 19,3 km/h (3 Bft) 100,00 %
14.02.2022 07:26 8,9 C 7,8 C 4,4 C 79 % 999,7 hPa 0,0 l/m 0 min 0 min 0 W/m 19,3 km/h (3 Bft) 100,00 %
14.02.2022 07:28 8,8 C 7,8 C 4,4 C 80 % 999,7 hPa 0,0 l/m 0 min 0 min 0 W/m 19,3 km/h (3 Bft) 97,87 %
14.02.2022 07:30 8,8 C 7,8 C 4,4 C 80 % 999,7 hPa 0,0 l/m 0 min 0 min 0 W/m 19,3 km/h (3 Bft) 100,00 %
14.02.2022 07:32 8,8 C 7,8 C 4,4 C 80 % 999,7 hPa 0,0 l/m 0 min 0 min 0 W/m 16,1 km/h (3 Bft) 100,00 %
14.02.2022 07:34 8,8 C 7,8 C 4,4 C 80 % 999,7 hPa 0,0 l/m 0 min 0 min 0 W/m 16,1 km/h (3 Bft) 97,87 %
14.02.2022 07:36 8,9 C 7,8 C 4,4 C 80 % 999,7 hPa 0,0 l/m 0 min 0 min 0 W/m 19,3 km/h (3 Bft) 97,87 %
14.02.2022 07:38 8,8 C 7,8 C 4,4 C 81 % 999,7 hPa 0,0 l/m 0 min 0 min 2 W/m 12,9 km/h (3 Bft) 93,62 %
14.02.2022 07:40 8,9 C 8,3 C 4,4 C 81 % 999,7 hPa 0,0 l/m 0 min 0 min 5 W/m 19,3 km/h (3 Bft) 97,83 %
14.02.2022 07:42 8,9 C 8,3 C 4,4 C 81 % 999,6 hPa 0,0 l/m 0 min 0 min 5 W/m 16,1 km/h (3 Bft) 97,87 %
14.02.2022 07:44 8,9 C 8,3 C 4,4 C 81 % 999,7 hPa 0,0 l/m 0 min 0 min 5 W/m 22,5 km/h (4 Bft) 95,74 %
14.02.2022 07:46 9,0 C 8,3 C 4,4 C 81 % 999,8 hPa 0,0 l/m 0 min 0 min 5 W/m 19,3 km/h (3 Bft) 97,87 %
14.02.2022 07:48 9,0 C 8,3 C 4,4 C 81 % 999,8 hPa 0,0 l/m 0 min 0 min 5 W/m 19,3 km/h (3 Bft) 98,00 %
14.02.2022 07:50 9,1 C 8,3 C 4,4 C 81 % 999,8 hPa 0,0 l/m 0 min 0 min 3 W/m 19,3 km/h (3 Bft) 97,83 %
14.02.2022 07:52 9,1 C 8,3 C 5,0 C 81 % 999,8 hPa 0,0 l/m 0 min 0 min 0 W/m 19,3 km/h (3 Bft) 97,22 %
14.02.2022 07:54 9,2 C 8,9 C 5,0 C 81 % 999,8 hPa 0,0 l/m 0 min 0 min 1 W/m 19,3 km/h (3 Bft) 97,87 %
14.02.2022 07:56 9,2 C 8,9 C 5,0 C 81 % 999,8 hPa 0,0 l/m 0 min 0 min 5 W/m 12,9 km/h (3 Bft) 97,83 %
14.02.2022 07:58 9,3 C 8,9 C 5,0 C 81 % 999,8 hPa 0,0 l/m 0 min 0 min 6 W/m 16,1 km/h (3 Bft) 97,87 %
14.02.2022 08:00 9,3 C 8,9 C 5,0 C 81 % 999,8 hPa 0,0 l/m 0 min 0 min 8 W/m 16,1 km/h (3 Bft) 97,87 %
14.02.2022 08:02 9,3 C 8,9 C 5,0 C 81 % 999,8 hPa 0,0 l/m 0 min 0 min 10 W/m 16,1 km/h (3 Bft) 97,87 %
14.02.2022 08:04 9,4 C 8,9 C 5,0 C 81 % 999,8 hPa 0,0 l/m 0 min 0 min 12 W/m 22,5 km/h (4 Bft) 95,74 %
14.02.2022 08:06 9,4 C 8,9 C 5,0 C 81 % 999,9 hPa 0,0 l/m 0 min 0 min 14 W/m 19,3 km/h (3 Bft) 97,87 %
14.02.2022 08:08 9,5 C 8,9 C 5,0 C 81 % 999,9 hPa 0,0 l/m 0 min 0 min 16 W/m 16,1 km/h (3 Bft) 97,83 %
14.02.2022 08:10 9,5 C 8,9 C 5,0 C 81 % 999,8 hPa 0,0 l/m 0 min 0 min 16 W/m 16,1 km/h (3 Bft) 97,87 %
14.02.2022 08:12 9,6 C 8,9 C 5,0 C 81 % 999,8 hPa 0,0 l/m 0 min 0 min 16 W/m 9,7 km/h (2 Bft) 97,87 %
14.02.2022 08:14 9,6 C 8,9 C 5,0 C 81 % 999,8 hPa 0,0 l/m 0 min 0 min 17 W/m 16,1 km/h (3 Bft) 95,74 %
14.02.2022 08:16 9,6 C 8,9 C 5,0 C 81 % 999,9 hPa 0,0 l/m 0 min 0 min 23 W/m 19,3 km/h (3 Bft) 95,74 %
14.02.2022 08:18 9,6 C 9,4 C 5,0 C 81 % 999,9 hPa 0,0 l/m 0 min 0 min 28 W/m 25,7 km/h (4 Bft) 97,87 %
14.02.2022 08:20 9,7 C 9,4 C 5,0 C 81 % 999,9 hPa 0,0 l/m 0 min 0 min 28 W/m 16,1 km/h (3 Bft) 97,83 %
14.02.2022 08:22 9,8 C 9,4 C 5,6 C 81 % 1000,0 hPa 0,0 l/m 0 min 0 min 25 W/m 19,3 km/h (3 Bft) 97,87 %
14.02.2022 08:24 9,8 C 9,4 C 5,6 C 81 % 1000,0 hPa 0,0 l/m 0 min 0 min 24 W/m 22,5 km/h (4 Bft) 97,87 %
14.02.2022 08:26 9,9 C 9,4 C 5,6 C 80 % 1000,0 hPa 0,0 l/m 0 min 0 min 27 W/m 22,5 km/h (4 Bft) 95,74 %
14.02.2022 08:28 9,9 C 9,4 C 5,6 C 80 % 1000,0 hPa 0,0 l/m 0 min 0 min 29 W/m 16,1 km/h (3 Bft) 95,74 %
14.02.2022 08:30 10,0 C 9,4 C 5,6 C 80 % 1000,0 hPa 0,0 l/m 0 min 0 min 27 W/m 16,1 km/h (3 Bft) 93,62 %
14.02.2022 08:32 10,1 C 9,4 C 5,6 C 80 % 1000,0 hPa 0,0 l/m 0 min 0 min 24 W/m 32,2 km/h (5 Bft) 97,83 %
14.02.2022 08:34 10,1 C 9,4 C 5,6 C 80 % 1000,0 hPa 0,0 l/m 0 min 0 min 21 W/m 22,5 km/h (4 Bft) 97,87 %
14.02.2022 08:36 10,2 C 9,4 C 5,6 C 80 % 1000,0 hPa 0,0 l/m 0 min 0 min 18 W/m 32,2 km/h (5 Bft) 95,74 %
14.02.2022 08:38 10,2 C 9,4 C 5,6 C 80 % 1000,1 hPa 0,0 l/m 0 min 0 min 18 W/m 22,5 km/h (4 Bft) 96,61 %
14.02.2022 08:40 10,3 C 10,0 C 6,1 C 80 % 1000,1 hPa 0,0 l/m 0 min 0 min 24 W/m 32,2 km/h (5 Bft) 97,14 %
14.02.2022 08:42 10,3 C 9,4 C 5,6 C 80 % 1000,1 hPa 0,0 l/m 0 min 0 min 26 W/m 9,7 km/h (2 Bft) 95,74 %
14.02.2022 08:44 10,3 C 10,0 C 5,6 C 80 % 1000,1 hPa 0,0 l/m 0 min 0 min 30 W/m 25,7 km/h (4 Bft) 94,83 %
14.02.2022 08:46 10,4 C 10,0 C 6,1 C 80 % 1000,2 hPa 0,0 l/m 0 min 0 min 35 W/m 25,7 km/h (4 Bft) 93,62 %
14.02.2022 08:48 10,4 C 10,0 C 6,1 C 80 % 1000,1 hPa 0,0 l/m 0 min 0 min 34 W/m 22,5 km/h (4 Bft) 95,74 %
14.02.2022 08:50 10,4 C 10,0 C 6,1 C 80 % 1000,0 hPa 0,0 l/m 0 min 0 min 43 W/m 29,0 km/h (5 Bft) 95,74 %
14.02.2022 08:52 10,5 C 10,0 C 6,1 C 80 % 1000,1 hPa 0,0 l/m 0 min 0 min 38 W/m 16,1 km/h (3 Bft) 95,65 %
14.02.2022 08:54 10,5 C 10,0 C 6,1 C 80 % 1000,1 hPa 0,0 l/m 0 min 0 min 33 W/m 35,4 km/h (5 Bft) 95,74 %
14.02.2022 08:56 10,5 C 10,0 C 6,1 C 80 % 1000,0 hPa 0,0 l/m 0 min 0 min 34 W/m 32,2 km/h (5 Bft) 95,74 %
14.02.2022 08:58 10,5 C 10,0 C 6,1 C 80 % 1000,1 hPa 0,0 l/m 0 min 0 min 39 W/m 25,7 km/h (4 Bft) 97,87 %
14.02.2022 09:00 10,6 C 10,0 C 6,1 C 80 % 1000,1 hPa 0,0 l/m 0 min 0 min 49 W/m 19,3 km/h (3 Bft) 95,74 %
14.02.2022 09:02 10,6 C 10,0 C 6,1 C 80 % 1000,1 hPa 0,0 l/m 0 min 0 min 54 W/m 25,7 km/h (4 Bft) 95,74 %
14.02.2022 09:04 10,6 C 10,0 C 6,1 C 80 % 1000,1 hPa 0,0 l/m 0 min 0 min 58 W/m 25,7 km/h (4 Bft) 97,83 %
14.02.2022 09:06 10,6 C 10,0 C 6,1 C 80 % 1000,1 hPa 0,0 l/m 0 min 0 min 62 W/m 22,5 km/h (4 Bft) 97,87 %
14.02.2022 09:08 10,6 C 10,0 C 6,1 C 80 % 1000,2 hPa 0,0 l/m 0 min 0 min 69 W/m 29,0 km/h (5 Bft) 97,87 %
14.02.2022 09:10 10,6 C 10,0 C 6,1 C 80 % 1000,1 hPa 0,0 l/m 0 min 0 min 70 W/m 48,3 km/h (6 Bft) 95,74 %
14.02.2022 09:12 10,6 C 10,0 C 6,1 C 80 % 1000,1 hPa 0,0 l/m 0 min 0 min 81 W/m 25,7 km/h (4 Bft) 100,00 %
14.02.2022 09:14 10,6 C 10,0 C 6,1 C 80 % 1000,0 hPa 0,0 l/m 0 min 0 min 88 W/m 45,1 km/h (6 Bft) 97,87 %
14.02.2022 09:16 10,7 C 10,0 C 6,1 C 80 % 1000,0 hPa 0,0 l/m 0 min 0 min 87 W/m 22,5 km/h (4 Bft) 97,83 %
14.02.2022 09:18 10,7 C 10,0 C 6,1 C 80 % 1000,0 hPa 0,0 l/m 0 min 0 min 86 W/m 19,3 km/h (3 Bft) 97,87 %
14.02.2022 09:20 10,7 C 10,6 C 6,7 C 80 % 1000,0 hPa 0,0 l/m 0 min 0 min 90 W/m 25,7 km/h (4 Bft) 97,87 %
14.02.2022 09:22 10,7 C 10,6 C 6,7 C 80 % 1000,1 hPa 0,0 l/m 0 min 0 min 93 W/m 29,0 km/h (5 Bft) 97,87 %
14.02.2022 09:24 10,7 C 10,6 C 6,7 C 80 % 1000,0 hPa 0,0 l/m 0 min 0 min 97 W/m 32,2 km/h (5 Bft) 97,87 %
14.02.2022 09:26 10,8 C 10,6 C 6,7 C 80 % 1000,1 hPa 0,0 l/m 2 min 0 min 109 W/m 29,0 km/h (5 Bft) 97,83 %
14.02.2022 09:28 10,8 C 10,6 C 6,7 C 80 % 1000,1 hPa 0,0 l/m 0 min 0 min 93 W/m 25,7 km/h (4 Bft) 95,74 %
14.02.2022 09:30 10,8 C 10,6 C 6,7 C 80 % 1000,1 hPa 0,0 l/m 0 min 0 min 79 W/m 35,4 km/h (5 Bft) 100,00 %
14.02.2022 09:32 10,8 C 10,6 C 6,7 C 80 % 1000,2 hPa 0,0 l/m 0 min 0 min 73 W/m 22,5 km/h (4 Bft) 100,00 %
14.02.2022 09:34 10,8 C 10,6 C 6,7 C 80 % 1000,2 hPa 0,0 l/m 0 min 0 min 80 W/m 35,4 km/h (5 Bft) 100,00 %
14.02.2022 09:36 10,9 C 10,6 C 6,7 C 80 % 1000,2 hPa 0,0 l/m 0 min 0 min 73 W/m 38,6 km/h (5 Bft) 100,00 %
14.02.2022 09:38 10,9 C 10,6 C 6,7 C 80 % 1000,2 hPa 0,0 l/m 0 min 0 min 80 W/m 38,6 km/h (5 Bft) 97,83 %
14.02.2022 09:40 10,9 C 10,6 C 6,7 C 80 % 1000,3 hPa 0,0 l/m 0 min 0 min 96 W/m 38,6 km/h (5 Bft) 100,00 %
14.02.2022 09:42 10,9 C 10,6 C 6,7 C 80 % 1000,3 hPa 0,0 l/m 0 min 0 min 114 W/m 25,7 km/h (4 Bft) 100,00 %
14.02.2022 09:44 10,9 C 10,6 C 6,7 C 80 % 1000,3 hPa 0,0 l/m 0 min 0 min 111 W/m 22,5 km/h (4 Bft) 97,87 %
14.02.2022 09:46 11,0 C 10,6 C 6,7 C 80 % 1000,2 hPa 0,0 l/m 0 min 0 min 110 W/m 16,1 km/h (3 Bft) 100,00 %
14.02.2022 09:48 11,0 C 10,6 C 6,7 C 80 % 1000,2 hPa 0,0 l/m 0 min 0 min 106 W/m 19,3 km/h (3 Bft) 100,00 %
14.02.2022 09:50 11,1 C 10,6 C 6,7 C 80 % 1000,2 hPa 0,0 l/m 0 min 0 min 105 W/m 25,7 km/h (4 Bft) 100,00 %
14.02.2022 09:52 11,1 C 10,6 C 6,7 C 80 % 1000,2 hPa 0,0 l/m 0 min 0 min 109 W/m 41,8 km/h (6 Bft) 97,87 %
14.02.2022 09:54 11,1 C 11,1 C 7,2 C 80 % 1000,2 hPa 0,0 l/m 0 min 0 min 113 W/m 25,7 km/h (4 Bft) 100,00 %
14.02.2022 09:56 11,2 C 11,1 C 7,2 C 80 % 1000,3 hPa 0,0 l/m 0 min 0 min 102 W/m 38,6 km/h (5 Bft) 100,00 %
14.02.2022 09:58 11,2 C 10,6 C 6,7 C 80 % 1000,3 hPa 0,0 l/m 0 min 0 min 80 W/m 19,3 km/h (3 Bft) 100,00 %
14.02.2022 10:00 11,2 C 10,6 C 6,7 C 80 % 1000,3 hPa 0,0 l/m 0 min 0 min 75 W/m 32,2 km/h (5 Bft) 100,00 %
14.02.2022 10:02 11,2 C 10,6 C 6,7 C 80 % 1000,3 hPa 0,0 l/m 0 min 0 min 70 W/m 41,8 km/h (6 Bft) 97,83 %
14.02.2022 10:04 11,2 C 10,6 C 6,7 C 80 % 1000,3 hPa 0,0 l/m 0 min 0 min 69 W/m 38,6 km/h (5 Bft) 100,00 %
14.02.2022 10:06 11,2 C 10,6 C 6,7 C 80 % 1000,3 hPa 0,0 l/m 0 min 0 min 74 W/m 41,8 km/h (6 Bft) 100,00 %
14.02.2022 10:08 11,2 C 10,6 C 6,7 C 80 % 1000,3 hPa 0,0 l/m 0 min 0 min 78 W/m 35,4 km/h (5 Bft) 97,87 %
14.02.2022 10:10 11,2 C 10,6 C 6,7 C 80 % 1000,3 hPa 0,0 l/m 0 min 0 min 96 W/m 29,0 km/h (5 Bft) 100,00 %
14.02.2022 10:12 11,2 C 10,6 C 7,2 C 80 % 1000,3 hPa 0,0 l/m 0 min 0 min 121 W/m 32,2 km/h (5 Bft) 97,87 %
14.02.2022 10:14 11,2 C 10,6 C 7,2 C 80 % 1000,2 hPa 0,0 l/m 0 min 0 min 129 W/m 29,0 km/h (5 Bft) 100,00 %
14.02.2022 10:16 11,2 C 10,6 C 7,2 C 80 % 1000,4 hPa 0,0 l/m 0 min 0 min 123 W/m 45,1 km/h (6 Bft) 95,74 %
14.02.2022 10:18 11,2 C 11,1 C 7,2 C 80 % 1000,3 hPa 0,0 l/m 0 min 0 min 112 W/m 41,8 km/h (6 Bft) 93,62 %
14.02.2022 10:20 11,3 C 11,1 C 7,2 C 81 % 1000,4 hPa 0,0 l/m 0 min 0 min 138 W/m 41,8 km/h (6 Bft) 95,74 %
14.02.2022 10:22 11,3 C 11,1 C 7,2 C 81 % 1000,4 hPa 0,0 l/m 2 min 0 min 160 W/m 32,2 km/h (5 Bft) 97,87 %
14.02.2022 10:24 11,3 C 11,1 C 7,2 C 81 % 1000,4 hPa 0,0 l/m 0 min 0 min 156 W/m 32,2 km/h (5 Bft) 97,83 %
14.02.2022 10:26 11,3 C 11,1 C 7,2 C 81 % 1000,4 hPa 0,0 l/m 0 min 0 min 142 W/m 45,1 km/h (6 Bft) 93,62 %
14.02.2022 10:28 11,3 C 11,1 C 7,2 C 81 % 1000,3 hPa 0,0 l/m 0 min 0 min 137 W/m 51,5 km/h (7 Bft) 95,74 %
14.02.2022 10:30 11,3 C 11,1 C 7,2 C 81 % 1000,4 hPa 0,0 l/m 0 min 0 min 99 W/m 38,6 km/h (5 Bft) 95,74 %
14.02.2022 10:32 11,3 C 10,6 C 7,2 C 81 % 1000,4 hPa 0,0 l/m 0 min 0 min 90 W/m 35,4 km/h (5 Bft) 95,74 %
14.02.2022 10:34 11,2 C 10,6 C 7,2 C 81 % 1000,5 hPa 0,0 l/m 0 min 0 min 88 W/m 35,4 km/h (5 Bft) 95,74 %
14.02.2022 10:36 11,1 C 10,6 C 6,7 C 82 % 1000,6 hPa 0,0 l/m 0 min 0 min 71 W/m 41,8 km/h (6 Bft) 93,62 %
14.02.2022 10:38 11,1 C 10,6 C 6,7 C 82 % 1000,6 hPa 0,0 l/m 0 min 0 min 81 W/m 38,6 km/h (5 Bft) 97,83 %
14.02.2022 10:40 11,0 C 10,6 C 6,7 C 83 % 1000,7 hPa 0,0 l/m 0 min 0 min 91 W/m 32,2 km/h (5 Bft) 93,62 %
14.02.2022 10:42 10,9 C 10,6 C 6,7 C 83 % 1000,6 hPa 0,0 l/m 0 min 0 min 116 W/m 35,4 km/h (5 Bft) 96,00 %
14.02.2022 10:44 10,9 C 10,6 C 6,7 C 84 % 1000,7 hPa 0,0 l/m 0 min 0 min 122 W/m 35,4 km/h (5 Bft) 93,62 %
14.02.2022 10:46 10,8 C 10,6 C 6,7 C 84 % 1000,7 hPa 0,0 l/m 0 min 0 min 140 W/m 29,0 km/h (5 Bft) 95,74 %
14.02.2022 10:48 10,8 C 11,7 C 6,7 C 84 % 1000,8 hPa 0,0 l/m 2 min 0 min 265 W/m 29,0 km/h (5 Bft) 93,48 %
14.02.2022 10:50 10,8 C 11,7 C 6,7 C 84 % 1000,8 hPa 0,0 l/m 2 min 0 min 234 W/m 25,7 km/h (4 Bft) 95,74 %
14.02.2022 10:52 10,8 C 11,7 C 6,7 C 85 % 1000,8 hPa 0,0 l/m 2 min 0 min 180 W/m 35,4 km/h (5 Bft) 95,74 %
14.02.2022 10:54 10,8 C 11,1 C 6,7 C 85 % 1000,9 hPa 0,0 l/m 0 min 0 min 154 W/m 25,7 km/h (4 Bft) 93,62 %
14.02.2022 10:56 10,7 C 11,1 C 6,7 C 85 % 1000,9 hPa 0,0 l/m 0 min 0 min 160 W/m 25,7 km/h (4 Bft) 95,74 %
14.02.2022 10:58 10,7 C 11,1 C 6,7 C 85 % 1000,9 hPa 0,0 l/m 0 min 0 min 179 W/m 35,4 km/h (5 Bft) 95,65 %
14.02.2022 11:00 10,7 C 11,7 C 7,2 C 85 % 1000,9 hPa 0,0 l/m 2 min 0 min 195 W/m 25,7 km/h (4 Bft) 95,74 %
14.02.2022 11:02 10,7 C 11,1 C 6,7 C 85 % 1000,9 hPa 0,0 l/m 0 min 0 min 151 W/m 22,5 km/h (4 Bft) 95,74 %
14.02.2022 11:04 10,7 C 10,6 C 6,7 C 85 % 1000,9 hPa 0,0 l/m 0 min 0 min 129 W/m 25,7 km/h (4 Bft) 100,00 %
14.02.2022 11:06 10,7 C 10,6 C 6,7 C 85 % 1001,0 hPa 0,0 l/m 0 min 0 min 157 W/m 22,5 km/h (4 Bft) 100,00 %
14.02.2022 11:08 10,7 C 10,6 C 6,7 C 85 % 1001,0 hPa 0,0 l/m 0 min 0 min 176 W/m 35,4 km/h (5 Bft) 100,00 %
14.02.2022 11:10 10,6 C 11,1 C 6,7 C 85 % 1001,0 hPa 0,0 l/m 2 min 0 min 199 W/m 16,1 km/h (3 Bft) 97,87 %
14.02.2022 11:12 10,7 C 11,1 C 7,2 C 85 % 1001,0 hPa 0,0 l/m 2 min 0 min 205 W/m 22,5 km/h (4 Bft) 97,83 %
14.02.2022 11:14 10,7 C 11,1 C 7,2 C 84 % 1001,0 hPa 0,0 l/m 2 min 0 min 208 W/m 51,5 km/h (7 Bft) 100,00 %
14.02.2022 11:16 10,7 C 11,7 C 7,2 C 84 % 1001,1 hPa 0,0 l/m 2 min 0 min 256 W/m 22,5 km/h (4 Bft) 100,00 %
14.02.2022 11:18 10,7 C 12,8 C 7,2 C 83 % 1001,1 hPa 0,0 l/m 0 min 0 min 192 W/m 25,7 km/h (4 Bft) 97,87 %
14.02.2022 11:20 10,8 C 11,7 C 7,2 C 83 % 1001,2 hPa 0,0 l/m 0 min 0 min 180 W/m 22,5 km/h (4 Bft) 100,00 %
14.02.2022 11:22 10,8 C 11,7 C 7,2 C 83 % 1001,2 hPa 0,0 l/m 0 min 0 min 146 W/m 19,3 km/h (3 Bft) 97,87 %
14.02.2022 11:24 10,9 C 11,7 C 7,2 C 82 % 1001,3 hPa 0,0 l/m 0 min 0 min 184 W/m 19,3 km/h (3 Bft) 97,30 %
14.02.2022 11:26 10,8 C 11,1 C 7,2 C 81 % 1001,3 hPa 0,0 l/m 0 min 0 min 167 W/m 41,8 km/h (6 Bft) 100,00 %
14.02.2022 11:28 10,7 C 11,7 C 7,2 C 80 % 1001,5 hPa 0,0 l/m 0 min 0 min 176 W/m 29,0 km/h (5 Bft) 97,87 %
14.02.2022 11:30 10,7 C 12,2 C 7,2 C 79 % 1001,5 hPa 0,0 l/m 0 min 0 min 146 W/m 35,4 km/h (5 Bft) 100,00 %
14.02.2022 11:32 10,7 C 12,8 C 7,8 C 79 % 1001,5 hPa 0,0 l/m 0 min 0 min 128 W/m 35,4 km/h (5 Bft) 97,87 %
14.02.2022 11:34 10,7 C 12,2 C 7,8 C 79 % 1001,6 hPa 0,0 l/m 0 min 0 min 147 W/m 22,5 km/h (4 Bft) 100,00 %
14.02.2022 11:36 10,7 C 13,9 C 8,3 C 79 % 1001,6 hPa 0,0 l/m 2 min 0 min 257 W/m 19,3 km/h (3 Bft) 100,00 %
14.02.2022 11:38 10,8 C 13,9 C 8,3 C 79 % 1001,6 hPa 0,0 l/m 2 min 0 min 421 W/m 25,7 km/h (4 Bft) 100,00 %
14.02.2022 11:40 10,8 C 13,3 C 8,3 C 78 % 1001,6 hPa 0,0 l/m 2 min 0 min 575 W/m 35,4 km/h (5 Bft) 97,87 %
14.02.2022 11:42 10,8 C 12,2 C 7,8 C 78 % 1001,7 hPa 0,0 l/m 0 min 0 min 168 W/m 22,5 km/h (4 Bft) 97,83 %
14.02.2022 11:44 10,8 C 12,8 C 7,8 C 77 % 1001,8 hPa 0,0 l/m 2 min 0 min 211 W/m 35,4 km/h (5 Bft) 97,87 %
14.02.2022 11:46 10,8 C 13,9 C 8,3 C 77 % 1001,8 hPa 0,0 l/m 2 min 0 min 220 W/m 22,5 km/h (4 Bft) 97,87 %
14.02.2022 11:48 10,9 C 15,0 C 9,4 C 77 % 1001,8 hPa 0,0 l/m 2 min 0 min 401 W/m 35,4 km/h (5 Bft) 97,87 %
14.02.2022 11:50 11,0 C 14,4 C 9,4 C 77 % 1001,9 hPa 0,0 l/m 2 min 0 min 462 W/m 29,0 km/h (5 Bft) 97,87 %
14.02.2022 11:52 11,1 C 13,9 C 8,9 C 77 % 1001,8 hPa 0,0 l/m 2 min 0 min 320 W/m 29,0 km/h (5 Bft) 97,87 %
14.02.2022 11:54 11,1 C 12,8 C 8,3 C 77 % 1001,9 hPa 0,0 l/m 0 min 0 min 182 W/m 19,3 km/h (3 Bft) 97,83 %
14.02.2022 11:56 11,1 C 13,3 C 8,9 C 77 % 1002,0 hPa 0,0 l/m 0 min 0 min 186 W/m 25,7 km/h (4 Bft) 97,87 %
14.02.2022 11:58 11,1 C 12,2 C 8,3 C 76 % 1002,0 hPa 0,0 l/m 0 min 0 min 161 W/m 32,2 km/h (5 Bft) 97,87 %
14.02.2022 12:00 11,0 C 12,2 C 7,8 C 76 % 1002,1 hPa 0,0 l/m 0 min 0 min 90 W/m 19,3 km/h (3 Bft) 95,74 %
14.02.2022 12:02 10,9 C 12,8 C 7,8 C 76 % 1002,2 hPa 0,0 l/m 0 min 0 min 144 W/m 48,3 km/h (6 Bft) 97,87 %
14.02.2022 12:04 11,0 C 13,9 C 7,8 C 76 % 1002,1 hPa 0,0 l/m 0 min 0 min 178 W/m 25,7 km/h (4 Bft) 95,74 %
14.02.2022 12:08 11,2 C 13,3 C 8,3 C 76 % 1002,1 hPa 0,0 l/m 0 min 0 min 198 W/m 32,2 km/h (5 Bft) 97,85 %
14.02.2022 12:10 11,2 C 12,8 C 8,3 C 76 % 1002,2 hPa 0,0 l/m 0 min 0 min 151 W/m 25,7 km/h (4 Bft) 97,87 %
14.02.2022 12:12 11,2 C 12,8 C 8,3 C 75 % 1002,1 hPa 0,0 l/m 0 min 0 min 141 W/m 29,0 km/h (5 Bft) 97,87 %
14.02.2022 12:14 11,3 C 12,8 C 8,3 C 76 % 1002,2 hPa 0,0 l/m 0 min 0 min 214 W/m 25,7 km/h (4 Bft) 97,87 %
14.02.2022 12:16 11,4 C 13,3 C 8,9 C 76 % 1002,2 hPa 0,0 l/m 0 min 0 min 206 W/m 22,5 km/h (4 Bft) 97,83 %
14.02.2022 12:18 11,6 C 13,9 C 9,4 C 76 % 1002,2 hPa 0,0 l/m 2 min 0 min 287 W/m 25,7 km/h (4 Bft) 95,74 %
14.02.2022 12:20 11,8 C 13,9 C 10,0 C 76 % 1002,2 hPa 0,0 l/m 2 min 0 min 369 W/m 22,5 km/h (4 Bft) 97,87 %
14.02.2022 12:22 11,9 C 13,9 C 10,0 C 75 % 1002,2 hPa 0,0 l/m 2 min 0 min 256 W/m 29,0 km/h (5 Bft) 97,87 %
14.02.2022 12:24 11,9 C 13,3 C 9,4 C 74 % 1002,2 hPa 0,0 l/m 2 min 0 min 280 W/m 35,4 km/h (5 Bft) 97,87 %
14.02.2022 12:26 11,9 C 12,8 C 9,4 C 75 % 1002,4 hPa 0,0 l/m 0 min 0 min 195 W/m 61,2 km/h (7 Bft) 97,87 %
14.02.2022 12:28 11,7 C 12,2 C 8,3 C 74 % 1002,3 hPa 0,0 l/m 0 min 0 min 141 W/m 48,3 km/h (6 Bft) 95,65 %
14.02.2022 12:30 11,6 C 11,7 C 7,8 C 75 % 1002,3 hPa 0,0 l/m 0 min 0 min 168 W/m 41,8 km/h (6 Bft) 95,74 %
14.02.2022 12:32 11,4 C 11,7 C 7,8 C 75 % 1002,3 hPa 0,0 l/m 0 min 0 min 217 W/m 38,6 km/h (5 Bft) 95,74 %
14.02.2022 12:34 11,2 C 12,2 C 8,3 C 75 % 1002,3 hPa 0,0 l/m 2 min 0 min 304 W/m 48,3 km/h (6 Bft) 91,49 %
14.02.2022 12:36 11,2 C 12,2 C 8,3 C 76 % 1002,3 hPa 0,0 l/m 2 min 0 min 342 W/m 38,6 km/h (5 Bft) 93,62 %
14.02.2022 12:38 11,2 C 12,2 C 8,3 C 76 % 1002,3 hPa 0,0 l/m 2 min 0 min 264 W/m 32,2 km/h (5 Bft) 95,74 %
14.02.2022 12:40 11,3 C 12,8 C 8,3 C 76 % 1002,3 hPa 0,0 l/m 2 min 0 min 309 W/m 19,3 km/h (3 Bft) 95,65 %
14.02.2022 12:42 11,4 C 13,3 C 8,3 C 76 % 1002,3 hPa 0,0 l/m 2 min 0 min 516 W/m 22,5 km/h (4 Bft) 95,74 %
14.02.2022 12:44 11,4 C 12,2 C 8,3 C 76 % 1002,3 hPa 0,0 l/m 2 min 0 min 370 W/m 25,7 km/h (4 Bft) 95,74 %
14.02.2022 12:46 11,4 C 11,7 C 7,8 C 75 % 1002,3 hPa 0,0 l/m 0 min 0 min 171 W/m 35,4 km/h (5 Bft) 93,62 %
14.02.2022 12:48 11,4 C 11,7 C 7,8 C 75 % 1002,3 hPa 0,0 l/m 0 min 0 min 165 W/m 25,7 km/h (4 Bft) 97,87 %
14.02.2022 12:50 11,3 C 11,1 C 7,8 C 75 % 1002,3 hPa 0,0 l/m 0 min 0 min 190 W/m 25,7 km/h (4 Bft) 93,62 %
14.02.2022 12:52 11,3 C 11,7 C 7,8 C 76 % 1002,4 hPa 0,0 l/m 2 min 0 min 234 W/m 29,0 km/h (5 Bft) 97,83 %
14.02.2022 12:54 11,3 C 11,7 C 7,8 C 76 % 1002,3 hPa 0,0 l/m 2 min 0 min 238 W/m 19,3 km/h (3 Bft) 97,87 %
14.02.2022 12:56 11,3 C 11,7 C 7,8 C 76 % 1002,4 hPa 0,0 l/m 0 min 0 min 187 W/m 19,3 km/h (3 Bft) 97,87 %
14.02.2022 12:58 11,2 C 11,1 C 7,8 C 75 % 1002,4 hPa 0,0 l/m 0 min 0 min 201 W/m 41,8 km/h (6 Bft) 95,74 %
14.02.2022 13:00 11,2 C 11,1 C 7,2 C 74 % 1002,5 hPa 0,0 l/m 0 min 0 min 170 W/m 45,1 km/h (6 Bft) 95,74 %
14.02.2022 13:02 11,1 C 10,6 C 7,2 C 75 % 1002,4 hPa 0,0 l/m 0 min 0 min 155 W/m 38,6 km/h (5 Bft) 93,62 %
14.02.2022 13:04 11,0 C 10,6 C 7,2 C 75 % 1002,5 hPa 0,0 l/m 0 min 0 min 146 W/m 25,7 km/h (4 Bft) 97,83 %
14.02.2022 13:06 10,9 C 10,6 C 7,2 C 75 % 1002,5 hPa 0,0 l/m 0 min 0 min 143 W/m 45,1 km/h (6 Bft) 97,87 %
14.02.2022 13:08 10,8 C 10,6 C 7,2 C 75 % 1002,5 hPa 0,0 l/m 0 min 0 min 93 W/m 32,2 km/h (5 Bft) 97,87 %
14.02.2022 13:10 10,8 C 10,0 C 6,7 C 76 % 1002,5 hPa 0,0 l/m 0 min 0 min 65 W/m 41,8 km/h (6 Bft) 97,87 %
14.02.2022 13:12 10,7 C 10,0 C 6,7 C 76 % 1002,4 hPa 0,0 l/m 0 min 0 min 67 W/m 41,8 km/h (6 Bft) 97,87 %
14.02.2022 13:14 10,6 C 10,0 C 6,7 C 76 % 1002,5 hPa 0,0 l/m 0 min 0 min 91 W/m 35,4 km/h (5 Bft) 97,87 %
14.02.2022 13:16 10,5 C 10,0 C 6,7 C 77 % 1002,5 hPa 0,0 l/m 0 min 0 min 102 W/m 19,3 km/h (3 Bft) 95,65 %
14.02.2022 13:18 10,4 C 10,0 C 6,7 C 77 % 1002,5 hPa 0,0 l/m 0 min 0 min 95 W/m 19,3 km/h (3 Bft) 95,74 %
14.02.2022 13:20 10,4 C 10,0 C 6,7 C 77 % 1002,6 hPa 0,0 l/m 0 min 0 min 91 W/m 22,5 km/h (4 Bft) 97,87 %
14.02.2022 13:22 10,4 C 10,0 C 6,7 C 77 % 1002,6 hPa 0,0 l/m 0 min 0 min 80 W/m 29,0 km/h (5 Bft) 95,74 %
14.02.2022 13:24 10,4 C 10,0 C 6,7 C 78 % 1002,6 hPa 0,0 l/m 0 min 0 min 85 W/m 22,5 km/h (4 Bft) 97,87 %
14.02.2022 13:26 10,3 C 10,0 C 6,7 C 78 % 1002,6 hPa 0,0 l/m 0 min 0 min 94 W/m 32,2 km/h (5 Bft) 97,87 %
14.02.2022 13:28 10,3 C 10,0 C 6,7 C 78 % 1002,6 hPa 0,0 l/m 0 min 0 min 92 W/m 38,6 km/h (5 Bft) 97,83 %
14.02.2022 13:30 10,3 C 10,0 C 6,7 C 78 % 1002,6 hPa 0,0 l/m 0 min 0 min 90 W/m 25,7 km/h (4 Bft) 97,87 %
14.02.2022 13:32 10,3 C 10,0 C 6,7 C 78 % 1002,6 hPa 0,0 l/m 0 min 0 min 122 W/m 16,1 km/h (3 Bft) 95,74 %
14.02.2022 13:34 10,3 C 11,7 C 6,7 C 78 % 1002,6 hPa 0,0 l/m 2 min 0 min 216 W/m 29,0 km/h (5 Bft) 95,74 %
14.02.2022 13:36 10,4 C 12,8 C 6,7 C 78 % 1002,6 hPa 0,0 l/m 2 min 0 min 427 W/m 22,5 km/h (4 Bft) 98,15 %
14.02.2022 13:38 10,5 C 11,7 C 7,2 C 78 % 1002,5 hPa 0,0 l/m 2 min 0 min 241 W/m 29,0 km/h (5 Bft) 98,00 %
14.02.2022 13:40 10,6 C 11,7 C 7,2 C 78 % 1002,6 hPa 0,0 l/m 2 min 0 min 217 W/m 19,3 km/h (3 Bft) 97,87 %
14.02.2022 13:42 10,6 C 11,1 C 7,2 C 76 % 1002,5 hPa 0,0 l/m 0 min 0 min 209 W/m 35,4 km/h (5 Bft) 97,87 %
14.02.2022 13:44 10,6 C 10,6 C 7,2 C 76 % 1002,4 hPa 0,0 l/m 0 min 0 min 174 W/m 38,6 km/h (5 Bft) 97,83 %
14.02.2022 13:46 10,6 C 10,6 C 7,2 C 76 % 1002,5 hPa 0,0 l/m 0 min 0 min 162 W/m 29,0 km/h (5 Bft) 97,96 %
14.02.2022 13:48 10,6 C 10,6 C 6,7 C 76 % 1002,5 hPa 0,0 l/m 0 min 0 min 141 W/m 22,5 km/h (4 Bft) 100,00 %
14.02.2022 13:50 10,6 C 10,6 C 6,7 C 76 % 1002,4 hPa 0,0 l/m 0 min 0 min 132 W/m 16,1 km/h (3 Bft) 97,87 %
14.02.2022 13:52 10,6 C 10,6 C 6,7 C 76 % 1002,4 hPa 0,0 l/m 0 min 0 min 124 W/m 38,6 km/h (5 Bft) 100,00 %
14.02.2022 13:54 10,6 C 10,6 C 6,7 C 76 % 1002,4 hPa 0,0 l/m 0 min 0 min 113 W/m 19,3 km/h (3 Bft) 100,00 %
14.02.2022 13:56 10,6 C 10,6 C 6,7 C 76 % 1002,4 hPa 0,0 l/m 0 min 0 min 130 W/m 25,7 km/h (4 Bft) 100,00 %
14.02.2022 13:58 10,6 C 10,6 C 6,7 C 76 % 1002,4 hPa 0,0 l/m 0 min 0 min 178 W/m 29,0 km/h (5 Bft) 97,87 %
14.02.2022 14:00 10,6 C 10,6 C 6,7 C 75 % 1002,4 hPa 0,0 l/m 2 min 0 min 212 W/m 25,7 km/h (4 Bft) 97,83 %
14.02.2022 14:02 10,6 C 11,1 C 7,2 C 75 % 1002,4 hPa 0,0 l/m 2 min 0 min 268 W/m 25,7 km/h (4 Bft) 100,00 %
14.02.2022 14:04 10,7 C 12,2 C 7,2 C 75 % 1002,4 hPa 0,0 l/m 2 min 0 min 418 W/m 35,4 km/h (5 Bft) 100,00 %
14.02.2022 14:06 10,8 C 12,2 C 7,2 C 75 % 1002,4 hPa 0,0 l/m 2 min 0 min 250 W/m 25,7 km/h (4 Bft) 97,87 %
14.02.2022 14:08 10,8 C 11,7 C 7,2 C 75 % 1002,4 hPa 0,0 l/m 2 min 0 min 235 W/m 32,2 km/h (5 Bft) 100,00 %
14.02.2022 14:10 10,8 C 11,1 C 7,2 C 74 % 1002,5 hPa 0,0 l/m 2 min 0 min 243 W/m 29,0 km/h (5 Bft) 97,87 %
14.02.2022 14:12 10,8 C 11,7 C 7,2 C 74 % 1002,5 hPa 0,0 l/m 2 min 0 min 250 W/m 25,7 km/h (4 Bft) 100,00 %
14.02.2022 14:14 10,9 C 13,3 C 7,2 C 75 % 1002,5 hPa 0,0 l/m 2 min 0 min 458 W/m 29,0 km/h (5 Bft) 100,00 %
14.02.2022 14:16 11,0 C 13,3 C 7,2 C 74 % 1002,5 hPa 0,0 l/m 2 min 0 min 405 W/m 25,7 km/h (4 Bft) 100,00 %
14.02.2022 14:18 11,1 C 12,8 C 7,2 C 73 % 1002,5 hPa 0,0 l/m 2 min 0 min 404 W/m 29,0 km/h (5 Bft) 100,00 %
14.02.2022 14:20 11,1 C 13,3 C 7,2 C 74 % 1002,5 hPa 0,0 l/m 2 min 0 min 260 W/m 12,9 km/h (3 Bft) 97,87 %
14.02.2022 14:22 11,2 C 13,3 C 7,2 C 74 % 1002,5 hPa 0,0 l/m 2 min 0 min 294 W/m 25,7 km/h (4 Bft) 100,00 %
14.02.2022 14:24 11,2 C 13,3 C 7,2 C 73 % 1002,5 hPa 0,0 l/m 2 min 0 min 300 W/m 29,0 km/h (5 Bft) 100,00 %
14.02.2022 14:26 11,3 C 12,8 C 7,2 C 73 % 1002,5 hPa 0,0 l/m 2 min 0 min 327 W/m 35,4 km/h (5 Bft) 100,00 %
14.02.2022 14:28 11,3 C 12,8 C 7,2 C 72 % 1002,5 hPa 0,0 l/m 2 min 0 min 262 W/m 29,0 km/h (5 Bft) 100,00 %
14.02.2022 14:30 11,3 C 12,2 C 7,2 C 72 % 1002,5 hPa 0,0 l/m 2 min 0 min 216 W/m 41,8 km/h (6 Bft) 97,87 %
14.02.2022 14:32 11,3 C 11,7 C 7,2 C 72 % 1002,6 hPa 0,0 l/m 0 min 0 min 159 W/m 32,2 km/h (5 Bft) 100,00 %
14.02.2022 14:34 11,2 C 11,1 C 7,2 C 72 % 1002,6 hPa 0,0 l/m 0 min 0 min 136 W/m 25,7 km/h (4 Bft) 100,00 %
14.02.2022 14:36 11,2 C 11,1 C 7,2 C 73 % 1002,6 hPa 0,0 l/m 0 min 0 min 156 W/m 22,5 km/h (4 Bft) 97,87 %
14.02.2022 14:38 11,2 C 11,1 C 7,2 C 73 % 1002,6 hPa 0,0 l/m 0 min 0 min 122 W/m 35,4 km/h (5 Bft) 97,87 %
14.02.2022 14:40 11,1 C 11,1 C 7,2 C 72 % 1002,6 hPa 0,0 l/m 0 min 0 min 122 W/m 48,3 km/h (6 Bft) 97,87 %
14.02.2022 14:42 11,1 C 11,1 C 7,2 C 73 % 1002,6 hPa 0,0 l/m 0 min 0 min 167 W/m 32,2 km/h (5 Bft) 97,87 %
14.02.2022 14:44 11,0 C 11,1 C 7,2 C 73 % 1002,6 hPa 0,0 l/m 2 min 0 min 210 W/m 35,4 km/h (5 Bft) 95,74 %
14.02.2022 14:46 11,0 C 11,1 C 7,2 C 72 % 1002,6 hPa 0,0 l/m 0 min 0 min 178 W/m 29,0 km/h (5 Bft) 95,65 %
14.02.2022 14:48 11,0 C 11,1 C 7,2 C 72 % 1002,7 hPa 0,0 l/m 2 min 0 min 204 W/m 32,2 km/h (5 Bft) 97,87 %
14.02.2022 14:50 11,0 C 11,1 C 7,2 C 72 % 1002,8 hPa 0,0 l/m 0 min 0 min 138 W/m 32,2 km/h (5 Bft) 97,87 %
14.02.2022 14:52 11,0 C 11,1 C 7,2 C 72 % 1002,7 hPa 0,0 l/m 0 min 0 min 173 W/m 25,7 km/h (4 Bft) 97,87 %
14.02.2022 14:54 11,0 C 11,7 C 7,2 C 73 % 1002,8 hPa 0,0 l/m 2 min 0 min 201 W/m 32,2 km/h (5 Bft) 95,74 %
14.02.2022 14:56 11,0 C 11,1 C 7,2 C 72 % 1002,8 hPa 0,0 l/m 2 min 0 min 197 W/m 32,2 km/h (5 Bft) 97,87 %
14.02.2022 14:58 11,0 C 11,1 C 7,2 C 71 % 1002,8 hPa 0,0 l/m 0 min 0 min 166 W/m 32,2 km/h (5 Bft) 97,83 %
14.02.2022 15:00 11,0 C 11,1 C 7,2 C 72 % 1002,8 hPa 0,0 l/m 0 min 0 min 126 W/m 32,2 km/h (5 Bft) 97,87 %
14.02.2022 15:02 10,9 C 10,6 C 6,7 C 71 % 1002,9 hPa 0,0 l/m 0 min 0 min 112 W/m 35,4 km/h (5 Bft) 95,74 %
14.02.2022 15:04 10,9 C 10,6 C 6,7 C 72 % 1002,9 hPa 0,0 l/m 0 min 0 min 99 W/m 32,2 km/h (5 Bft) 93,62 %
14.02.2022 15:06 10,9 C 10,6 C 6,7 C 71 % 1002,9 hPa 0,0 l/m 0 min 0 min 83 W/m 51,5 km/h (7 Bft) 95,74 %
14.02.2022 15:08 10,8 C 10,6 C 6,7 C 72 % 1002,9 hPa 0,0 l/m 0 min 0 min 73 W/m 22,5 km/h (4 Bft) 95,74 %
14.02.2022 15:10 10,8 C 10,6 C 6,7 C 72 % 1002,9 hPa 0,0 l/m 0 min 0 min 73 W/m 25,7 km/h (4 Bft) 95,65 %
14.02.2022 15:12 10,8 C 10,6 C 6,7 C 72 % 1002,9 hPa 0,0 l/m 0 min 0 min 88 W/m 22,5 km/h (4 Bft) 93,62 %
14.02.2022 15:14 10,8 C 10,6 C 6,7 C 72 % 1002,9 hPa 0,0 l/m 0 min 0 min 120 W/m 16,1 km/h (3 Bft) 97,87 %
14.02.2022 15:16 10,8 C 10,6 C 6,7 C 72 % 1002,9 hPa 0,0 l/m 0 min 0 min 146 W/m 25,7 km/h (4 Bft) 95,74 %
14.02.2022 15:18 10,8 C 11,1 C 6,7 C 72 % 1003,0 hPa 0,0 l/m 2 min 0 min 157 W/m 32,2 km/h (5 Bft) 93,62 %
14.02.2022 15:20 10,8 C 10,6 C 6,7 C 71 % 1003,0 hPa 0,0 l/m 0 min 0 min 133 W/m 32,2 km/h (5 Bft) 95,74 %
14.02.2022 15:22 10,8 C 10,6 C 6,7 C 71 % 1002,9 hPa 0,0 l/m 0 min 0 min 135 W/m 32,2 km/h (5 Bft) 97,83 %
14.02.2022 15:24 10,8 C 11,1 C 6,7 C 71 % 1003,0 hPa 0,0 l/m 2 min 0 min 151 W/m 29,0 km/h (5 Bft) 93,62 %
14.02.2022 15:26 10,9 C 11,7 C 6,7 C 71 % 1003,0 hPa 0,0 l/m 2 min 0 min 223 W/m 29,0 km/h (5 Bft) 100,00 %
14.02.2022 15:28 10,9 C 11,1 C 6,7 C 71 % 1002,9 hPa 0,0 l/m 2 min 0 min 167 W/m 41,8 km/h (6 Bft) 97,87 %
14.02.2022 15:30 10,9 C 11,1 C 6,7 C 71 % 1002,9 hPa 0,0 l/m 2 min 0 min 154 W/m 35,4 km/h (5 Bft) 97,87 %
14.02.2022 15:32 10,9 C 11,1 C 6,7 C 71 % 1003,0 hPa 0,0 l/m 2 min 0 min 197 W/m 29,0 km/h (5 Bft) 95,74 %
14.02.2022 15:34 10,9 C 11,7 C 6,7 C 71 % 1002,9 hPa 0,0 l/m 2 min 0 min 203 W/m 29,0 km/h (5 Bft) 97,83 %
14.02.2022 15:36 10,9 C 11,7 C 6,7 C 71 % 1002,9 hPa 0,0 l/m 2 min 0 min 248 W/m 41,8 km/h (6 Bft) 97,87 %
14.02.2022 15:38 10,9 C 11,7 C 6,7 C 71 % 1002,8 hPa 0,0 l/m 2 min 0 min 216 W/m 29,0 km/h (5 Bft) 95,74 %
14.02.2022 15:40 10,9 C 11,7 C 6,7 C 72 % 1002,9 hPa 0,0 l/m 2 min 0 min 223 W/m 19,3 km/h (3 Bft) 97,87 %
14.02.2022 15:42 10,9 C 11,7 C 6,7 C 72 % 1002,9 hPa 0,0 l/m 2 min 0 min 150 W/m 19,3 km/h (3 Bft) 95,74 %
14.02.2022 15:44 11,0 C 11,1 C 6,7 C 72 % 1002,9 hPa 0,0 l/m 2 min 0 min 144 W/m 35,4 km/h (5 Bft) 93,62 %
14.02.2022 15:46 11,0 C 11,1 C 6,7 C 71 % 1002,9 hPa 0,0 l/m 2 min 0 min 151 W/m 25,7 km/h (4 Bft) 91,30 %
14.02.2022 15:48 10,9 C 11,1 C 6,7 C 71 % 1002,9 hPa 0,0 l/m 2 min 0 min 182 W/m 38,6 km/h (5 Bft) 93,62 %
14.02.2022 15:50 10,9 C 10,6 C 6,7 C 71 % 1002,9 hPa 0,0 l/m 2 min 0 min 163 W/m 29,0 km/h (5 Bft) 93,62 %
14.02.2022 15:52 10,9 C 10,6 C 6,7 C 71 % 1002,9 hPa 0,0 l/m 2 min 0 min 150 W/m 35,4 km/h (5 Bft) 93,62 %
14.02.2022 15:54 10,9 C 10,6 C 6,7 C 72 % 1002,9 hPa 0,0 l/m 2 min 0 min 148 W/m 16,1 km/h (3 Bft) 97,87 %
14.02.2022 15:56 10,9 C 11,1 C 6,7 C 72 % 1002,9 hPa 0,0 l/m 2 min 0 min 146 W/m 12,9 km/h (3 Bft) 97,87 %
14.02.2022 15:58 10,9 C 11,1 C 6,7 C 72 % 1003,0 hPa 0,0 l/m 2 min 0 min 143 W/m 22,5 km/h (4 Bft) 97,83 %
14.02.2022 16:00 10,9 C 10,6 C 6,7 C 72 % 1003,0 hPa 0,0 l/m 2 min 0 min 140 W/m 29,0 km/h (5 Bft) 95,74 %
14.02.2022 16:02 10,9 C 10,6 C 6,7 C 72 % 1003,1 hPa 0,0 l/m 2 min 0 min 134 W/m 22,5 km/h (4 Bft) 97,87 %
14.02.2022 16:04 10,9 C 10,6 C 6,7 C 72 % 1003,1 hPa 0,0 l/m 2 min 0 min 127 W/m 29,0 km/h (5 Bft) 97,87 %
14.02.2022 16:06 10,9 C 10,6 C 6,7 C 72 % 1003,1 hPa 0,0 l/m 2 min 0 min 126 W/m 25,7 km/h (4 Bft) 95,74 %
14.02.2022 16:08 10,9 C 10,6 C 6,7 C 72 % 1003,1 hPa 0,0 l/m 2 min 0 min 133 W/m 19,3 km/h (3 Bft) 97,87 %
14.02.2022 16:10 10,9 C 10,6 C 6,7 C 72 % 1003,1 hPa 0,0 l/m 2 min 0 min 140 W/m 32,2 km/h (5 Bft) 97,83 %
14.02.2022 16:12 10,9 C 10,6 C 6,7 C 72 % 1003,1 hPa 0,0 l/m 2 min 0 min 158 W/m 19,3 km/h (3 Bft) 95,74 %
14.02.2022 16:14 10,9 C 10,6 C 6,7 C 72 % 1003,0 hPa 0,0 l/m 2 min 0 min 166 W/m 29,0 km/h (5 Bft) 97,87 %
14.02.2022 16:16 10,9 C 10,6 C 6,7 C 72 % 1003,1 hPa 0,0 l/m 2 min 0 min 171 W/m 22,5 km/h (4 Bft) 97,87 %
14.02.2022 16:18 10,9 C 11,1 C 6,7 C 72 % 1003,1 hPa 0,0 l/m 2 min 0 min 158 W/m 22,5 km/h (4 Bft) 97,87 %
14.02.2022 16:20 11,0 C 11,1 C 6,7 C 72 % 1003,1 hPa 0,0 l/m 2 min 0 min 141 W/m 22,5 km/h (4 Bft) 97,87 %
14.02.2022 16:22 11,0 C 11,1 C 6,7 C 71 % 1003,1 hPa 0,0 l/m 2 min 0 min 138 W/m 25,7 km/h (4 Bft) 95,65 %
14.02.2022 16:24 11,0 C 11,1 C 6,7 C 71 % 1003,1 hPa 0,0 l/m 2 min 0 min 135 W/m 35,4 km/h (5 Bft) 97,87 %
14.02.2022 16:26 11,0 C 10,6 C 6,7 C 71 % 1003,1 hPa 0,0 l/m 2 min 0 min 118 W/m 29,0 km/h (5 Bft) 100,00 %
14.02.2022 16:28 11,0 C 10,6 C 6,7 C 71 % 1003,1 hPa 0,0 l/m 2 min 0 min 91 W/m 38,6 km/h (5 Bft) 100,00 %
14.02.2022 16:30 11,0 C 10,6 C 6,7 C 71 % 1003,2 hPa 0,0 l/m 0 min 0 min 75 W/m 22,5 km/h (4 Bft) 100,00 %
14.02.2022 16:32 10,9 C 10,6 C 6,7 C 71 % 1003,3 hPa 0,0 l/m 0 min 0 min 70 W/m 25,7 km/h (4 Bft) 93,48 %
14.02.2022 16:34 10,9 C 10,6 C 6,7 C 71 % 1003,3 hPa 0,0 l/m 0 min 0 min 70 W/m 19,3 km/h (3 Bft) 100,00 %
14.02.2022 16:36 10,9 C 10,6 C 6,7 C 72 % 1003,3 hPa 0,0 l/m 0 min 0 min 73 W/m 32,2 km/h (5 Bft) 100,00 %
14.02.2022 16:38 10,8 C 10,6 C 6,7 C 72 % 1003,3 hPa 0,0 l/m 0 min 0 min 73 W/m 35,4 km/h (5 Bft) 100,00 %
14.02.2022 16:40 10,8 C 10,6 C 6,7 C 72 % 1003,4 hPa 0,0 l/m 0 min 0 min 72 W/m 22,5 km/h (4 Bft) 100,00 %
14.02.2022 16:42 10,8 C 10,6 C 6,7 C 72 % 1003,5 hPa 0,0 l/m 0 min 0 min 70 W/m 19,3 km/h (3 Bft) 93,62 %
14.02.2022 16:44 10,8 C 10,0 C 6,1 C 72 % 1003,5 hPa 0,0 l/m 2 min 0 min 72 W/m 19,3 km/h (3 Bft) 97,87 %
14.02.2022 16:46 10,7 C 10,0 C 6,1 C 72 % 1003,5 hPa 0,0 l/m 2 min 0 min 79 W/m 19,3 km/h (3 Bft) 97,83 %
14.02.2022 16:48 10,7 C 10,0 C 6,1 C 73 % 1003,5 hPa 0,0 l/m 2 min 0 min 87 W/m 16,1 km/h (3 Bft) 97,87 %
14.02.2022 16:50 10,7 C 10,6 C 6,1 C 73 % 1003,6 hPa 0,0 l/m 2 min 0 min 96 W/m 25,7 km/h (4 Bft) 97,87 %
14.02.2022 16:52 10,7 C 10,6 C 6,7 C 73 % 1003,6 hPa 0,0 l/m 2 min 0 min 105 W/m 19,3 km/h (3 Bft) 97,87 %
14.02.2022 16:54 10,7 C 10,6 C 6,7 C 73 % 1003,7 hPa 0,0 l/m 2 min 0 min 102 W/m 29,0 km/h (5 Bft) 97,87 %
14.02.2022 16:56 10,7 C 10,0 C 6,7 C 73 % 1003,6 hPa 0,0 l/m 2 min 0 min 85 W/m 35,4 km/h (5 Bft) 97,83 %
14.02.2022 16:58 10,7 C 10,0 C 6,7 C 73 % 1003,6 hPa 0,0 l/m 2 min 0 min 71 W/m 22,5 km/h (4 Bft) 97,87 %
14.02.2022 17:00 10,7 C 10,0 C 6,7 C 73 % 1003,6 hPa 0,0 l/m 2 min 0 min 66 W/m 32,2 km/h (5 Bft) 97,87 %
14.02.2022 17:02 10,7 C 10,0 C 6,1 C 73 % 1003,5 hPa 0,0 l/m 2 min 0 min 58 W/m 22,5 km/h (4 Bft) 97,87 %
14.02.2022 17:04 10,7 C 10,0 C 6,1 C 73 % 1003,5 hPa 0,0 l/m 2 min 0 min 53 W/m 29,0 km/h (5 Bft) 97,87 %
14.02.2022 17:06 10,6 C 10,0 C 6,1 C 73 % 1003,5 hPa 0,0 l/m 2 min 0 min 51 W/m 25,7 km/h (4 Bft) 97,87 %
14.02.2022 17:08 10,6 C 10,0 C 6,1 C 73 % 1003,5 hPa 0,0 l/m 2 min 0 min 51 W/m 29,0 km/h (5 Bft) 97,83 %
14.02.2022 17:10 10,6 C 10,0 C 6,1 C 73 % 1003,5 hPa 0,0 l/m 2 min 0 min 51 W/m 19,3 km/h (3 Bft) 97,87 %
14.02.2022 17:12 10,6 C 10,0 C 6,1 C 73 % 1003,5 hPa 0,0 l/m 2 min 0 min 50 W/m 25,7 km/h (4 Bft) 95,74 %
14.02.2022 17:14 10,6 C 10,0 C 6,1 C 73 % 1003,5 hPa 0,0 l/m 2 min 0 min 51 W/m 32,2 km/h (5 Bft) 97,87 %
14.02.2022 17:16 10,6 C 10,0 C 6,1 C 74 % 1003,6 hPa 0,0 l/m 2 min 0 min 51 W/m 19,3 km/h (3 Bft) 97,87 %
14.02.2022 17:18 10,5 C 10,0 C 6,1 C 74 % 1003,6 hPa 0,0 l/m 2 min 0 min 50 W/m 25,7 km/h (4 Bft) 97,87 %
14.02.2022 17:20 10,5 C 10,0 C 6,1 C 74 % 1003,6 hPa 0,0 l/m 2 min 0 min 45 W/m 19,3 km/h (3 Bft) 100,00 %
14.02.2022 17:22 10,4 C 10,0 C 6,1 C 74 % 1003,6 hPa 0,0 l/m 2 min 0 min 39 W/m 25,7 km/h (4 Bft) 100,00 %
14.02.2022 17:24 10,4 C 10,0 C 6,1 C 74 % 1003,7 hPa 0,0 l/m 2 min 0 min 32 W/m 22,5 km/h (4 Bft) 100,00 %
14.02.2022 17:26 10,4 C 9,4 C 6,1 C 74 % 1003,6 hPa 0,0 l/m 2 min 0 min 27 W/m 19,3 km/h (3 Bft) 97,87 %
14.02.2022 17:28 10,4 C 9,4 C 6,1 C 74 % 1003,7 hPa 0,0 l/m 2 min 0 min 24 W/m 19,3 km/h (3 Bft) 100,00 %
14.02.2022 17:30 10,4 C 9,4 C 6,1 C 74 % 1003,7 hPa 0,0 l/m 0 min 0 min 19 W/m 25,7 km/h (4 Bft) 97,87 %
14.02.2022 17:32 10,3 C 9,4 C 5,6 C 74 % 1003,7 hPa 0,0 l/m 0 min 0 min 18 W/m 19,3 km/h (3 Bft) 56,52 %
14.02.2022 17:34 10,3 C 9,4 C 5,6 C 74 % 1003,7 hPa 0,0 l/m 0 min 0 min 16 W/m 16,1 km/h (3 Bft) 100,00 %
14.02.2022 17:36 10,3 C 9,4 C 5,6 C 74 % 1003,7 hPa 0,0 l/m 0 min 0 min 16 W/m 12,9 km/h (3 Bft) 100,00 %
14.02.2022 17:38 10,3 C 9,4 C 5,6 C 74 % 1003,8 hPa 0,0 l/m 0 min 0 min 16 W/m 16,1 km/h (3 Bft) 100,00 %
14.02.2022 17:40 10,2 C 9,4 C 5,6 C 74 % 1003,8 hPa 0,0 l/m 0 min 0 min 16 W/m 16,1 km/h (3 Bft) 97,87 %
14.02.2022 17:42 10,2 C 9,4 C 5,6 C 74 % 1003,8 hPa 0,0 l/m 0 min 0 min 16 W/m 12,9 km/h (3 Bft) 100,00 %
14.02.2022 17:44 10,2 C 9,4 C 5,6 C 74 % 1003,8 hPa 0,0 l/m 0 min 0 min 16 W/m 9,7 km/h (2 Bft) 100,00 %
14.02.2022 17:46 10,1 C 9,4 C 5,6 C 74 % 1003,8 hPa 0,0 l/m 0 min 0 min 15 W/m 9,7 km/h (2 Bft) 97,87 %
14.02.2022 17:48 10,1 C 9,4 C 5,6 C 74 % 1003,8 hPa 0,0 l/m 0 min 0 min 13 W/m 16,1 km/h (3 Bft) 97,87 %
14.02.2022 17:50 10,1 C 8,9 C 5,6 C 74 % 1003,8 hPa 0,0 l/m 0 min 0 min 12 W/m 12,9 km/h (3 Bft) 97,87 %
14.02.2022 17:52 10,1 C 8,9 C 5,6 C 74 % 1003,8 hPa 0,0 l/m 0 min 0 min 11 W/m 12,9 km/h (3 Bft) 97,87 %
14.02.2022 17:54 10,0 C 8,9 C 5,6 C 74 % 1003,9 hPa 0,0 l/m 0 min 0 min 8 W/m 16,1 km/h (3 Bft) 97,87 %
14.02.2022 17:56 9,9 C 8,9 C 5,6 C 74 % 1003,9 hPa 0,0 l/m 0 min 0 min 2 W/m 16,1 km/h (3 Bft) 97,83 %
14.02.2022 17:58 9,9 C 8,9 C 5,6 C 74 % 1003,9 hPa 0,0 l/m 0 min 0 min 0 W/m 19,3 km/h (3 Bft) 95,74 %
14.02.2022 18:00 9,9 C 8,9 C 5,6 C 74 % 1003,9 hPa 0,0 l/m 0 min 0 min 0 W/m 16,1 km/h (3 Bft) 97,87 %
14.02.2022 18:02 9,9 C 8,9 C 5,6 C 74 % 1003,9 hPa 0,0 l/m 0 min 0 min 0 W/m 12,9 km/h (3 Bft) 97,87 %
14.02.2022 18:04 9,8 C 8,9 C 5,0 C 74 % 1003,9 hPa 0,0 l/m 0 min 0 min 0 W/m 9,7 km/h (2 Bft) 97,87 %
14.02.2022 18:08 9,8 C 8,9 C 5,0 C 74 % 1004,0 hPa 0,0 l/m 0 min 0 min 0 W/m 22,5 km/h (4 Bft) 97,85 %
14.02.2022 18:10 9,8 C 8,9 C 5,0 C 73 % 1004,1 hPa 0,0 l/m 0 min 0 min 0 W/m 16,1 km/h (3 Bft) 97,87 %
14.02.2022 18:12 9,7 C 8,9 C 5,0 C 73 % 1004,1 hPa 0,0 l/m 0 min 0 min 0 W/m 16,1 km/h (3 Bft) 97,87 %
14.02.2022 18:14 9,7 C 8,9 C 5,0 C 73 % 1004,1 hPa 0,0 l/m 0 min 0 min 0 W/m 16,1 km/h (3 Bft) 97,87 %
14.02.2022 18:16 9,7 C 8,3 C 5,0 C 73 % 1004,2 hPa 0,0 l/m 0 min 0 min 0 W/m 12,9 km/h (3 Bft) 97,87 %
14.02.2022 18:18 9,7 C 8,3 C 5,0 C 73 % 1004,2 hPa 0,0 l/m 0 min 0 min 0 W/m 12,9 km/h (3 Bft) 97,87 %
14.02.2022 18:20 9,6 C 8,3 C 5,0 C 73 % 1004,2 hPa 0,0 l/m 0 min 0 min 0 W/m 12,9 km/h (3 Bft) 97,83 %
14.02.2022 18:22 9,6 C 8,3 C 5,0 C 73 % 1004,2 hPa 0,0 l/m 0 min 0 min 0 W/m 16,1 km/h (3 Bft) 95,74 %
14.02.2022 18:24 9,6 C 8,3 C 5,0 C 73 % 1004,3 hPa 0,0 l/m 0 min 0 min 0 W/m 16,1 km/h (3 Bft) 95,74 %
14.02.2022 18:26 9,6 C 8,3 C 5,0 C 73 % 1004,3 hPa 0,0 l/m 0 min 0 min 0 W/m 16,1 km/h (3 Bft) 97,87 %
14.02.2022 18:28 9,5 C 8,3 C 5,0 C 73 % 1004,3 hPa 0,0 l/m 0 min 0 min 0 W/m 12,9 km/h (3 Bft) 97,87 %
14.02.2022 18:30 9,4 C 8,3 C 5,0 C 73 % 1004,4 hPa 0,0 l/m 0 min 0 min 0 W/m 12,9 km/h (3 Bft) 97,83 %
14.02.2022 18:32 9,4 C 8,3 C 5,0 C 73 % 1004,4 hPa 0,0 l/m 0 min 0 min 0 W/m 12,9 km/h (3 Bft) 97,22 %
14.02.2022 18:34 9,4 C 8,3 C 4,4 C 73 % 1004,4 hPa 0,0 l/m 0 min 0 min 0 W/m 16,1 km/h (3 Bft) 95,65 %
14.02.2022 18:36 9,3 C 8,3 C 4,4 C 74 % 1004,4 hPa 0,0 l/m 0 min 0 min 0 W/m 9,7 km/h (2 Bft) 95,74 %
14.02.2022 18:38 9,3 C 8,3 C 4,4 C 74 % 1004,5 hPa 0,0 l/m 0 min 0 min 0 W/m 6,4 km/h (2 Bft) 97,87 %
14.02.2022 18:40 9,3 C 7,8 C 4,4 C 74 % 1004,5 hPa 0,0 l/m 0 min 0 min 0 W/m 6,4 km/h (2 Bft) 97,87 %
14.02.2022 18:42 9,2 C 7,8 C 4,4 C 74 % 1004,5 hPa 0,0 l/m 0 min 0 min 0 W/m 16,1 km/h (3 Bft) 95,74 %
14.02.2022 18:44 9,2 C 7,8 C 4,4 C 74 % 1004,5 hPa 0,0 l/m 0 min 0 min 0 W/m 12,9 km/h (3 Bft) 93,62 %
14.02.2022 18:46 9,1 C 7,8 C 4,4 C 75 % 1004,6 hPa 0,0 l/m 0 min 0 min 0 W/m 12,9 km/h (3 Bft) 93,48 %
14.02.2022 18:48 9,1 C 7,8 C 4,4 C 75 % 1004,6 hPa 0,0 l/m 0 min 0 min 0 W/m 12,9 km/h (3 Bft) 95,74 %
14.02.2022 18:50 9,1 C 7,8 C 4,4 C 75 % 1004,7 hPa 0,0 l/m 0 min 0 min 0 W/m 19,3 km/h (3 Bft) 95,74 %
14.02.2022 18:52 9,1 C 7,8 C 4,4 C 75 % 1004,7 hPa 0,0 l/m 0 min 0 min 0 W/m 22,5 km/h (4 Bft) 95,74 %
14.02.2022 18:54 9,1 C 7,8 C 4,4 C 75 % 1004,7 hPa 0,0 l/m 0 min 0 min 0 W/m 12,9 km/h (3 Bft) 93,62 %
14.02.2022 18:56 9,0 C 7,8 C 4,4 C 75 % 1004,8 hPa 0,0 l/m 0 min 0 min 0 W/m 16,1 km/h (3 Bft) 95,74 %
14.02.2022 18:58 9,0 C 7,8 C 4,4 C 75 % 1004,8 hPa 0,0 l/m 0 min 0 min 0 W/m 19,3 km/h (3 Bft) 95,65 %
14.02.2022 19:00 8,9 C 7,8 C 4,4 C 75 % 1004,8 hPa 0,0 l/m 0 min 0 min 0 W/m 16,1 km/h (3 Bft) 91,49 %
14.02.2022 19:02 8,9 C 7,8 C 4,4 C 75 % 1004,8 hPa 0,0 l/m 0 min 0 min 0 W/m 16,1 km/h (3 Bft) 95,74 %
14.02.2022 19:04 8,8 C 7,8 C 4,4 C 76 % 1004,8 hPa 0,0 l/m 0 min 0 min 0 W/m 22,5 km/h (4 Bft) 93,62 %
14.02.2022 19:06 8,8 C 7,8 C 4,4 C 76 % 1004,8 hPa 0,0 l/m 0 min 0 min 0 W/m 19,3 km/h (3 Bft) 96,55 %
14.02.2022 19:08 8,8 C 7,8 C 4,4 C 76 % 1004,8 hPa 0,0 l/m 0 min 0 min 0 W/m 9,7 km/h (2 Bft) 95,74 %
14.02.2022 19:10 8,8 C 7,8 C 4,4 C 76 % 1004,8 hPa 0,0 l/m 0 min 0 min 0 W/m 9,7 km/h (2 Bft) 94,29 %
14.02.2022 19:12 8,7 C 7,8 C 3,9 C 76 % 1004,9 hPa 0,0 l/m 0 min 0 min 0 W/m 12,9 km/h (3 Bft) 95,74 %
14.02.2022 19:14 8,7 C 7,8 C 3,9 C 76 % 1004,8 hPa 0,0 l/m 0 min 0 min 0 W/m 6,4 km/h (2 Bft) 97,87 %
14.02.2022 19:16 8,7 C 7,2 C 3,9 C 76 % 1004,9 hPa 0,0 l/m 0 min 0 min 0 W/m 16,1 km/h (3 Bft) 97,87 %
14.02.2022 19:18 8,6 C 7,2 C 3,9 C 77 % 1004,9 hPa 0,0 l/m 0 min 0 min 0 W/m 16,1 km/h (3 Bft) 97,87 %
14.02.2022 19:20 8,6 C 7,2 C 3,9 C 77 % 1004,9 hPa 0,0 l/m 0 min 0 min 0 W/m 12,9 km/h (3 Bft) 95,74 %
14.02.2022 19:22 8,6 C 7,2 C 3,9 C 77 % 1004,9 hPa 0,0 l/m 0 min 0 min 0 W/m 19,3 km/h (3 Bft) 97,83 %
14.02.2022 19:24 8,5 C 7,2 C 3,9 C 77 % 1004,9 hPa 0,0 l/m 0 min 0 min 0 W/m 12,9 km/h (3 Bft) 100,00 %
14.02.2022 19:26 8,4 C 7,2 C 3,9 C 77 % 1004,9 hPa 0,0 l/m 0 min 0 min 0 W/m 9,7 km/h (2 Bft) 100,00 %
14.02.2022 19:28 8,4 C 7,2 C 3,9 C 77 % 1004,9 hPa 0,0 l/m 0 min 0 min 0 W/m 12,9 km/h (3 Bft) 100,00 %
14.02.2022 19:30 8,4 C 7,2 C 3,9 C 78 % 1005,0 hPa 0,0 l/m 0 min 0 min 0 W/m 9,7 km/h (2 Bft) 100,00 %
14.02.2022 19:32 8,3 C 7,2 C 3,9 C 78 % 1005,0 hPa 0,0 l/m 0 min 0 min 0 W/m 12,9 km/h (3 Bft) 97,87 %
14.02.2022 19:34 8,3 C 7,2 C 3,9 C 78 % 1004,9 hPa 0,0 l/m 0 min 0 min 0 W/m 12,9 km/h (3 Bft) 100,00 %
14.02.2022 19:36 8,3 C 7,2 C 3,9 C 78 % 1005,0 hPa 0,0 l/m 0 min 0 min 0 W/m 6,4 km/h (2 Bft) 100,00 %
14.02.2022 19:38 8,2 C 7,2 C 3,3 C 78 % 1005,0 hPa 0,0 l/m 0 min 0 min 0 W/m 6,4 km/h (2 Bft) 100,00 %
14.02.2022 19:40 8,2 C 7,2 C 3,3 C 78 % 1005,0 hPa 0,0 l/m 0 min 0 min 0 W/m 9,7 km/h (2 Bft) 100,00 %
14.02.2022 19:42 8,1 C 7,2 C 3,3 C 79 % 1005,1 hPa 0,0 l/m 0 min 0 min 0 W/m 9,7 km/h (2 Bft) 100,00 %
14.02.2022 19:44 8,1 C 7,2 C 3,3 C 79 % 1005,1 hPa 0,0 l/m 0 min 0 min 0 W/m 19,3 km/h (3 Bft) 100,00 %
14.02.2022 19:46 8,1 C 7,2 C 3,3 C 79 % 1005,1 hPa 0,0 l/m 0 min 0 min 0 W/m 16,1 km/h (3 Bft) 100,00 %
14.02.2022 19:48 8,1 C 6,7 C 3,3 C 79 % 1005,1 hPa 0,0 l/m 0 min 0 min 0 W/m 12,9 km/h (3 Bft) 100,00 %
14.02.2022 19:50 8,0 C 7,2 C 3,3 C 79 % 1005,2 hPa 0,0 l/m 0 min 0 min 0 W/m 16,1 km/h (3 Bft) 97,87 %
14.02.2022 19:52 8,0 C 7,2 C 3,3 C 80 % 1005,2 hPa 0,0 l/m 0 min 0 min 0 W/m 19,3 km/h (3 Bft) 100,00 %
14.02.2022 19:54 7,9 C 7,2 C 3,3 C 80 % 1005,3 hPa 0,0 l/m 0 min 0 min 0 W/m 9,7 km/h (2 Bft) 100,00 %
14.02.2022 19:56 7,9 C 6,7 C 3,3 C 80 % 1005,2 hPa 0,0 l/m 0 min 0 min 0 W/m 12,9 km/h (3 Bft) 100,00 %
14.02.2022 19:58 7,9 C 6,7 C 3,3 C 80 % 1005,2 hPa 0,0 l/m 0 min 0 min 0 W/m 16,1 km/h (3 Bft) 97,83 %
14.02.2022 20:00 7,9 C 6,7 C 3,3 C 80 % 1005,2 hPa 0,0 l/m 0 min 0 min 0 W/m 9,7 km/h (2 Bft) 100,00 %
14.02.2022 20:02 7,8 C 6,7 C 3,3 C 80 % 1005,2 hPa 0,0 l/m 0 min 0 min 0 W/m 16,1 km/h (3 Bft) 100,00 %
14.02.2022 20:04 7,8 C 6,7 C 3,3 C 80 % 1005,2 hPa 0,0 l/m 0 min 0 min 0 W/m 16,1 km/h (3 Bft) 97,87 %
14.02.2022 20:06 7,8 C 6,7 C 3,3 C 80 % 1005,3 hPa 0,0 l/m 0 min 0 min 0 W/m 12,9 km/h (3 Bft) 100,00 %
14.02.2022 20:08 7,8 C 6,7 C 3,3 C 80 % 1005,3 hPa 0,0 l/m 0 min 0 min 0 W/m 12,9 km/h (3 Bft) 97,62 %
14.02.2022 20:10 7,8 C 6,7 C 3,3 C 80 % 1005,3 hPa 0,0 l/m 0 min 0 min 0 W/m 12,9 km/h (3 Bft) 97,83 %
14.02.2022 20:12 7,7 C 6,7 C 3,3 C 80 % 1005,4 hPa 0,0 l/m 0 min 0 min 0 W/m 12,9 km/h (3 Bft) 97,87 %
14.02.2022 20:14 7,7 C 6,7 C 3,3 C 81 % 1005,3 hPa 0,0 l/m 0 min 0 min 0 W/m 9,7 km/h (2 Bft) 97,87 %
14.02.2022 20:16 7,7 C 6,7 C 3,3 C 81 % 1005,4 hPa 0,0 l/m 0 min 0 min 0 W/m 12,9 km/h (3 Bft) 95,74 %
14.02.2022 20:18 7,6 C 6,7 C 3,3 C 81 % 1005,5 hPa 0,0 l/m 0 min 0 min 0 W/m 6,4 km/h (2 Bft) 95,74 %
14.02.2022 20:20 7,6 C 6,1 C 2,8 C 81 % 1005,5 hPa 0,0 l/m 0 min 0 min 0 W/m 9,7 km/h (2 Bft) 93,62 %
14.02.2022 20:22 7,6 C 6,1 C 2,8 C 81 % 1005,5 hPa 0,0 l/m 0 min 0 min 0 W/m 12,9 km/h (3 Bft) 93,48 %
14.02.2022 20:24 7,5 C 6,1 C 2,8 C 81 % 1005,5 hPa 0,0 l/m 0 min 0 min 0 W/m 6,4 km/h (2 Bft) 95,74 %
14.02.2022 20:26 7,4 C 6,1 C 2,8 C 81 % 1005,6 hPa 0,0 l/m 0 min 0 min 0 W/m 6,4 km/h (2 Bft) 97,87 %
14.02.2022 20:28 7,4 C 6,1 C 2,8 C 81 % 1005,6 hPa 0,0 l/m 0 min 0 min 0 W/m 6,4 km/h (2 Bft) 97,87 %
14.02.2022 20:30 7,4 C 6,1 C 2,8 C 82 % 1005,6 hPa 0,0 l/m 0 min 0 min 0 W/m 6,4 km/h (2 Bft) 97,87 %
14.02.2022 20:32 7,3 C 6,1 C 2,8 C 82 % 1005,6 hPa 0,0 l/m 0 min 0 min 0 W/m 12,9 km/h (3 Bft) 95,65 %
14.02.2022 20:34 7,3 C 6,1 C 2,8 C 82 % 1005,6 hPa 0,0 l/m 0 min 0 min 0 W/m 6,4 km/h (2 Bft) 95,74 %
14.02.2022 20:36 7,3 C 6,1 C 2,8 C 82 % 1005,7 hPa 0,0 l/m 0 min 0 min 0 W/m 9,7 km/h (2 Bft) 96,23 %
14.02.2022 20:38 7,2 C 6,1 C 2,8 C 82 % 1005,7 hPa 0,0 l/m 0 min 0 min 0 W/m 6,4 km/h (2 Bft) 95,12 %
14.02.2022 20:40 7,2 C 6,1 C 2,8 C 82 % 1005,7 hPa 0,0 l/m 0 min 0 min 0 W/m 16,1 km/h (3 Bft) 95,74 %
14.02.2022 20:42 7,2 C 6,1 C 2,8 C 82 % 1005,7 hPa 0,0 l/m 0 min 0 min 0 W/m 6,4 km/h (2 Bft) 95,74 %
14.02.2022 20:44 7,1 C 6,1 C 2,8 C 82 % 1005,7 hPa 0,0 l/m 0 min 0 min 0 W/m 12,9 km/h (3 Bft) 95,65 %
14.02.2022 20:46 7,1 C 6,1 C 2,8 C 82 % 1005,7 hPa 0,0 l/m 0 min 0 min 0 W/m 12,9 km/h (3 Bft) 95,74 %
14.02.2022 20:48 7,1 C 6,1 C 2,8 C 82 % 1005,8 hPa 0,0 l/m 0 min 0 min 0 W/m 16,1 km/h (3 Bft) 95,74 %
14.02.2022 20:50 7,0 C 6,1 C 2,8 C 82 % 1005,8 hPa 0,0 l/m 0 min 0 min 0 W/m 9,7 km/h (2 Bft) 93,62 %
14.02.2022 20:52 7,0 C 6,1 C 2,8 C 83 % 1005,8 hPa 0,0 l/m 0 min 0 min 0 W/m 12,9 km/h (3 Bft) 97,87 %
14.02.2022 20:54 6,9 C 6,1 C 2,8 C 83 % 1005,8 hPa 0,0 l/m 0 min 0 min 0 W/m 12,9 km/h (3 Bft) 97,87 %
14.02.2022 20:56 6,9 C 6,1 C 2,8 C 83 % 1005,8 hPa 0,0 l/m 0 min 0 min 0 W/m 9,7 km/h (2 Bft) 97,83 %
14.02.2022 20:58 6,9 C 6,1 C 2,8 C 83 % 1005,7 hPa 0,0 l/m 0 min 0 min 0 W/m 16,1 km/h (3 Bft) 97,87 %
14.02.2022 21:00 6,9 C 6,1 C 2,8 C 83 % 1005,8 hPa 0,0 l/m 0 min 0 min 0 W/m 16,1 km/h (3 Bft) 97,87 %
14.02.2022 21:02 6,9 C 6,1 C 2,8 C 83 % 1005,8 hPa 0,0 l/m 0 min 0 min 0 W/m 9,7 km/h (2 Bft) 100,00 %
14.02.2022 21:04 6,9 C 6,1 C 2,8 C 83 % 1005,7 hPa 0,0 l/m 0 min 0 min 0 W/m 19,3 km/h (3 Bft) 100,00 %
14.02.2022 21:06 6,9 C 6,1 C 2,8 C 83 % 1005,8 hPa 0,0 l/m 0 min 0 min 0 W/m 25,7 km/h (4 Bft) 100,00 %
14.02.2022 21:08 6,9 C 6,1 C 2,8 C 83 % 1005,8 hPa 0,0 l/m 0 min 0 min 0 W/m 22,5 km/h (4 Bft) 100,00 %
14.02.2022 21:10 6,9 C 6,1 C 2,8 C 83 % 1005,8 hPa 0,0 l/m 0 min 0 min 0 W/m 16,1 km/h (3 Bft) 100,00 %
14.02.2022 21:12 6,9 C 6,1 C 2,8 C 83 % 1005,9 hPa 0,0 l/m 0 min 0 min 0 W/m 19,3 km/h (3 Bft) 97,87 %
14.02.2022 21:14 6,9 C 6,1 C 2,8 C 83 % 1005,9 hPa 0,0 l/m 0 min 0 min 0 W/m 16,1 km/h (3 Bft) 97,87 %
14.02.2022 21:16 6,9 C 6,1 C 2,8 C 83 % 1005,9 hPa 0,0 l/m 0 min 0 min 0 W/m 12,9 km/h (3 Bft) 100,00 %
14.02.2022 21:18 6,9 C 6,1 C 2,8 C 83 % 1005,9 hPa 0,0 l/m 0 min 0 min 0 W/m 19,3 km/h (3 Bft) 100,00 %
14.02.2022 21:20 6,9 C 6,1 C 2,8 C 83 % 1005,9 hPa 0,0 l/m 0 min 0 min 0 W/m 19,3 km/h (3 Bft) 97,83 %
14.02.2022 21:22 6,9 C 6,1 C 2,8 C 83 % 1005,9 hPa 0,0 l/m 0 min 0 min 0 W/m 16,1 km/h (3 Bft) 100,00 %
14.02.2022 21:24 6,9 C 6,1 C 2,8 C 83 % 1005,9 hPa 0,0 l/m 0 min 0 min 0 W/m 19,3 km/h (3 Bft) 100,00 %
14.02.2022 21:26 6,9 C 6,1 C 2,8 C 83 % 1005,9 hPa 0,0 l/m 0 min 0 min 0 W/m 9,7 km/h (2 Bft) 100,00 %
14.02.2022 21:28 6,9 C 6,1 C 2,8 C 83 % 1005,9 hPa 0,0 l/m 0 min 0 min 0 W/m 12,9 km/h (3 Bft) 100,00 %
14.02.2022 21:30 6,9 C 6,1 C 2,8 C 83 % 1005,9 hPa 0,0 l/m 0 min 0 min 0 W/m 12,9 km/h (3 Bft) 100,00 %
14.02.2022 21:32 6,9 C 6,1 C 2,8 C 83 % 1005,9 hPa 0,0 l/m 0 min 0 min 0 W/m 12,9 km/h (3 Bft) 100,00 %
14.02.2022 21:34 6,9 C 6,1 C 2,8 C 83 % 1005,8 hPa 0,0 l/m 0 min 0 min 0 W/m 22,5 km/h (4 Bft) 100,00 %
14.02.2022 21:36 6,9 C 6,1 C 2,8 C 83 % 1005,9 hPa 0,0 l/m 0 min 0 min 0 W/m 16,1 km/h (3 Bft) 97,87 %
14.02.2022 21:38 6,8 C 6,1 C 2,8 C 83 % 1005,9 hPa 0,0 l/m 0 min 0 min 0 W/m 19,3 km/h (3 Bft) 97,87 %
14.02.2022 21:40 6,8 C 6,1 C 2,8 C 83 % 1005,8 hPa 0,0 l/m 0 min 0 min 0 W/m 16,1 km/h (3 Bft) 95,65 %
14.02.2022 21:42 6,8 C 6,1 C 2,8 C 83 % 1005,9 hPa 0,0 l/m 0 min 0 min 0 W/m 19,3 km/h (3 Bft) 97,87 %
14.02.2022 21:44 6,8 C 6,1 C 2,8 C 83 % 1005,9 hPa 0,0 l/m 0 min 0 min 0 W/m 25,7 km/h (4 Bft) 97,87 %
14.02.2022 21:46 6,8 C 6,1 C 2,8 C 83 % 1005,9 hPa 0,0 l/m 0 min 0 min 0 W/m 19,3 km/h (3 Bft) 97,87 %
14.02.2022 21:48 6,8 C 6,1 C 2,8 C 83 % 1005,8 hPa 0,0 l/m 0 min 0 min 0 W/m 9,7 km/h (2 Bft) 97,87 %
14.02.2022 21:50 6,8 C 6,1 C 2,8 C 83 % 1005,8 hPa 0,0 l/m 0 min 0 min 0 W/m 12,9 km/h (3 Bft) 97,87 %
14.02.2022 21:52 6,8 C 6,1 C 2,8 C 83 % 1005,8 hPa 0,0 l/m 0 min 0 min 0 W/m 16,1 km/h (3 Bft) 97,83 %
14.02.2022 21:54 6,7 C 6,1 C 2,8 C 83 % 1005,8 hPa 0,0 l/m 0 min 0 min 0 W/m 12,9 km/h (3 Bft) 95,74 %
14.02.2022 21:56 6,7 C 5,6 C 2,8 C 83 % 1005,8 hPa 0,0 l/m 0 min 0 min 0 W/m 6,4 km/h (2 Bft) 97,87 %
14.02.2022 21:58 6,7 C 5,6 C 2,2 C 83 % 1005,9 hPa 0,0 l/m 0 min 0 min 0 W/m 9,7 km/h (2 Bft) 97,87 %
14.02.2022 22:00 6,7 C 5,6 C 2,2 C 83 % 1005,9 hPa 0,0 l/m 0 min 0 min 0 W/m 19,3 km/h (3 Bft) 95,74 %
14.02.2022 22:02 6,6 C 5,6 C 2,2 C 84 % 1005,9 hPa 0,0 l/m 0 min 0 min 0 W/m 12,9 km/h (3 Bft) 97,87 %
14.02.2022 22:04 6,6 C 5,6 C 2,2 C 84 % 1005,9 hPa 0,0 l/m 0 min 0 min 0 W/m 3,2 km/h (1 Bft) 97,87 %
14.02.2022 22:06 6,6 C 5,6 C 2,2 C 84 % 1005,9 hPa 0,0 l/m 0 min 0 min 0 W/m 9,7 km/h (2 Bft) 97,87 %
14.02.2022 22:08 6,6 C 5,6 C 2,2 C 84 % 1005,9 hPa 0,0 l/m 0 min 0 min 0 W/m 9,7 km/h (2 Bft) 97,87 %
14.02.2022 22:10 6,5 C 5,6 C 2,2 C 84 % 1006,0 hPa 0,0 l/m 0 min 0 min 0 W/m 16,1 km/h (3 Bft) 95,74 %
14.02.2022 22:12 6,5 C 5,6 C 2,2 C 84 % 1006,0 hPa 0,0 l/m 0 min 0 min 0 W/m 12,9 km/h (3 Bft) 95,74 %
14.02.2022 22:14 6,5 C 5,6 C 2,2 C 84 % 1006,0 hPa 0,0 l/m 0 min 0 min 0 W/m 6,4 km/h (2 Bft) 97,83 %
14.02.2022 22:16 6,4 C 5,6 C 2,2 C 84 % 1006,0 hPa 0,0 l/m 0 min 0 min 0 W/m 9,7 km/h (2 Bft) 93,62 %
14.02.2022 22:18 6,4 C 5,6 C 2,2 C 84 % 1005,9 hPa 0,0 l/m 0 min 0 min 0 W/m 6,4 km/h (2 Bft) 97,87 %
14.02.2022 22:20 6,3 C 5,6 C 2,2 C 84 % 1006,0 hPa 0,0 l/m 0 min 0 min 0 W/m 16,1 km/h (3 Bft) 95,74 %
14.02.2022 22:22 6,3 C 5,6 C 2,2 C 84 % 1006,0 hPa 0,0 l/m 0 min 0 min 0 W/m 12,9 km/h (3 Bft) 95,74 %
14.02.2022 22:24 6,3 C 5,6 C 2,2 C 84 % 1006,1 hPa 0,0 l/m 0 min 0 min 0 W/m 12,9 km/h (3 Bft) 95,74 %
14.02.2022 22:26 6,3 C 5,0 C 2,2 C 84 % 1006,1 hPa 0,0 l/m 0 min 0 min 0 W/m 9,7 km/h (2 Bft) 93,48 %
14.02.2022 22:28 6,3 C 5,6 C 2,2 C 84 % 1006,1 hPa 0,0 l/m 0 min 0 min 0 W/m 16,1 km/h (3 Bft) 93,62 %
14.02.2022 22:30 6,2 C 5,6 C 2,2 C 85 % 1006,0 hPa 0,0 l/m 0 min 0 min 0 W/m 12,9 km/h (3 Bft) 95,74 %
14.02.2022 22:32 6,2 C 5,6 C 2,2 C 85 % 1006,1 hPa 0,0 l/m 0 min 0 min 0 W/m 12,9 km/h (3 Bft) 89,58 %
14.02.2022 22:34 6,2 C 5,6 C 2,2 C 85 % 1006,1 hPa 0,0 l/m 0 min 0 min 0 W/m 9,7 km/h (2 Bft) 93,62 %
14.02.2022 22:36 6,2 C 5,0 C 2,2 C 85 % 1006,1 hPa 0,0 l/m 0 min 0 min 0 W/m 9,7 km/h (2 Bft) 95,74 %
14.02.2022 22:38 6,2 C 5,0 C 2,2 C 85 % 1006,1 hPa 0,0 l/m 0 min 0 min 0 W/m 6,4 km/h (2 Bft) 95,65 %
14.02.2022 22:40 6,2 C 5,0 C 2,2 C 85 % 1006,1 hPa 0,0 l/m 0 min 0 min 0 W/m 16,1 km/h (3 Bft) 93,62 %
14.02.2022 22:42 6,1 C 5,0 C 2,2 C 85 % 1006,1 hPa 0,0 l/m 0 min 0 min 0 W/m 9,7 km/h (2 Bft) 93,62 %
14.02.2022 22:44 6,1 C 5,0 C 2,2 C 85 % 1006,2 hPa 0,0 l/m 0 min 0 min 0 W/m 12,9 km/h (3 Bft) 95,74 %
14.02.2022 22:46 6,1 C 5,0 C 2,2 C 85 % 1006,2 hPa 0,0 l/m 0 min 0 min 0 W/m 6,4 km/h (2 Bft) 91,49 %
14.02.2022 22:48 6,1 C 5,0 C 1,7 C 85 % 1006,2 hPa 0,0 l/m 0 min 0 min 0 W/m 9,7 km/h (2 Bft) 93,62 %
14.02.2022 22:50 6,1 C 5,0 C 1,7 C 85 % 1006,2 hPa 0,0 l/m 0 min 0 min 0 W/m 6,4 km/h (2 Bft) 95,65 %
14.02.2022 22:52 6,0 C 5,0 C 1,7 C 85 % 1006,3 hPa 0,0 l/m 0 min 0 min 0 W/m 6,4 km/h (2 Bft) 97,87 %
14.02.2022 22:54 6,0 C 5,0 C 1,7 C 85 % 1006,3 hPa 0,0 l/m 0 min 0 min 0 W/m 3,2 km/h (1 Bft) 57,45 %
14.02.2022 22:56 5,9 C 5,0 C 1,7 C 85 % 1006,3 hPa 0,0 l/m 0 min 0 min 0 W/m 6,4 km/h (2 Bft) 93,75 %
14.02.2022 22:58 5,9 C 5,0 C 1,7 C 86 % 1006,3 hPa 0,0 l/m 0 min 0 min 0 W/m 9,7 km/h (2 Bft) 97,87 %
14.02.2022 23:00 5,9 C 5,0 C 1,7 C 86 % 1006,3 hPa 0,0 l/m 0 min 0 min 0 W/m 9,7 km/h (2 Bft) 97,87 %
14.02.2022 23:02 5,9 C 5,0 C 1,7 C 86 % 1006,4 hPa 0,0 l/m 0 min 0 min 0 W/m 16,1 km/h (3 Bft) 95,74 %
14.02.2022 23:04 5,9 C 5,0 C 1,7 C 86 % 1006,4 hPa 0,0 l/m 0 min 0 min 0 W/m 16,1 km/h (3 Bft) 95,74 %
14.02.2022 23:06 5,8 C 5,0 C 1,7 C 86 % 1006,4 hPa 0,0 l/m 0 min 0 min 0 W/m 6,4 km/h (2 Bft) 97,87 %
14.02.2022 23:08 5,8 C 5,0 C 1,7 C 86 % 1006,4 hPa 0,0 l/m 0 min 0 min 0 W/m 9,7 km/h (2 Bft) 100,00 %
14.02.2022 23:10 5,8 C 5,0 C 1,7 C 86 % 1006,4 hPa 0,0 l/m 0 min 0 min 0 W/m 6,4 km/h (2 Bft) 100,00 %
14.02.2022 23:12 5,8 C 5,0 C 1,7 C 86 % 1006,5 hPa 0,0 l/m 0 min 0 min 0 W/m 9,7 km/h (2 Bft) 100,00 %
14.02.2022 23:14 5,8 C 5,0 C 1,7 C 86 % 1006,5 hPa 0,0 l/m 0 min 0 min 0 W/m 19,3 km/h (3 Bft) 100,00 %
14.02.2022 23:16 5,8 C 5,0 C 2,2 C 86 % 1006,5 hPa 0,0 l/m 0 min 0 min 0 W/m 12,9 km/h (3 Bft) 100,00 %
14.02.2022 23:18 5,8 C 5,0 C 2,2 C 86 % 1006,5 hPa 0,0 l/m 0 min 0 min 0 W/m 12,9 km/h (3 Bft) 97,87 %
14.02.2022 23:20 5,9 C 5,0 C 2,2 C 87 % 1006,6 hPa 0,0 l/m 0 min 0 min 0 W/m 6,4 km/h (2 Bft) 100,00 %
14.02.2022 23:22 5,9 C 5,0 C 2,2 C 87 % 1006,6 hPa 0,0 l/m 0 min 0 min 0 W/m 3,2 km/h (1 Bft) 100,00 %
14.02.2022 23:24 5,9 C 5,0 C 2,2 C 87 % 1006,6 hPa 0,0 l/m 0 min 0 min 0 W/m 16,1 km/h (3 Bft) 100,00 %
14.02.2022 23:26 5,9 C 5,0 C 2,2 C 87 % 1006,6 hPa 0,0 l/m 0 min 0 min 0 W/m 12,9 km/h (3 Bft) 100,00 %
14.02.2022 23:28 5,9 C 5,0 C 2,2 C 87 % 1006,7 hPa 0,0 l/m 0 min 0 min 0 W/m 9,7 km/h (2 Bft) 100,00 %
14.02.2022 23:30 5,9 C 5,0 C 2,2 C 87 % 1006,7 hPa 0,0 l/m 0 min 0 min 0 W/m 12,9 km/h (3 Bft) 100,00 %
14.02.2022 23:32 5,9 C 5,0 C 2,2 C 87 % 1006,7 hPa 0,0 l/m 0 min 0 min 0 W/m 12,9 km/h (3 Bft) 100,00 %
14.02.2022 23:34 5,9 C 5,0 C 2,2 C 87 % 1006,6 hPa 0,0 l/m 0 min 0 min 0 W/m 19,3 km/h (3 Bft) 100,00 %
14.02.2022 23:36 5,9 C 5,0 C 2,2 C 87 % 1006,7 hPa 0,0 l/m 0 min 0 min 0 W/m 12,9 km/h (3 Bft) 100,00 %
14.02.2022 23:38 5,9 C 5,0 C 2,2 C 87 % 1006,7 hPa 0,0 l/m 0 min 0 min 0 W/m 6,4 km/h (2 Bft) 100,00 %
14.02.2022 23:40 5,9 C 5,0 C 2,2 C 87 % 1006,7 hPa 0,0 l/m 0 min 0 min 0 W/m 12,9 km/h (3 Bft) 100,00 %
14.02.2022 23:42 5,9 C 5,6 C 2,2 C 87 % 1006,7 hPa 0,0 l/m 0 min 0 min 0 W/m 16,1 km/h (3 Bft) 100,00 %
14.02.2022 23:44 5,9 C 5,6 C 2,2 C 87 % 1006,6 hPa 0,0 l/m 0 min 0 min 0 W/m 12,9 km/h (3 Bft) 100,00 %
14.02.2022 23:46 5,9 C 5,6 C 2,2 C 87 % 1006,7 hPa 0,0 l/m 0 min 0 min 0 W/m 12,9 km/h (3 Bft) 98,31 %
14.02.2022 23:48 6,0 C 5,6 C 2,2 C 87 % 1006,7 hPa 0,0 l/m 0 min 0 min 0 W/m 9,7 km/h (2 Bft) 100,00 %
14.02.2022 23:50 6,0 C 5,6 C 2,2 C 87 % 1006,8 hPa 0,0 l/m 0 min 0 min 0 W/m 12,9 km/h (3 Bft) 100,00 %
14.02.2022 23:52 6,0 C 5,6 C 2,2 C 87 % 1006,8 hPa 0,0 l/m 0 min 0 min 0 W/m 9,7 km/h (2 Bft) 97,87 %
14.02.2022 23:54 6,1 C 5,6 C 2,2 C 87 % 1006,8 hPa 0,0 l/m 0 min 0 min 0 W/m 12,9 km/h (3 Bft) 100,00 %
14.02.2022 23:56 6,1 C 5,6 C 2,2 C 87 % 1006,8 hPa 0,0 l/m 0 min 0 min 0 W/m 12,9 km/h (3 Bft) 100,00 %
14.02.2022 23:58 6,1 C 5,6 C 2,2 C 87 % 1006,8 hPa 0,0 l/m 0 min 0 min 0 W/m 6,4 km/h (2 Bft) 100,00 %
_ Min-Zeit 23:06 22:26 22:48 14:58 06:04 - - - - 22:04 17:32
Minimum _ 5,8 C 5,0 C 1,7 C 71 % 999,5 hPa - - - - 3,2 km/h (1 Bft) 56,52 %
_ Max-Zeit 12:22 11:48 12:20 23:20 23:50 00:00 09:26 00:00 11:40 12:26 00:00
Maximum _ 11,9 C 15,0 C 10,0 C 87 % 1006,8 hPa 0,0 l/m 2 min 0 min 575 W/m 61,2 km/h
SO (7 Bft)
100,00 %
Durchschnitt _ 9,1 C 8,6 C 4,9 C 78 % 1002,5 hPa #0,0 l/m #3:42 h #0 min. 132 W/m 23,0 km/h (4 Bft) 97,45 %
© 2022 W. Hausmann